GFSNE_850_spd_000.txt.gz
Wind_Speed
11 11 11 13 15 16 12 10 11 14 19 17 18 17 17 15 15 15 14 17 20 23 23 24 18 19 20 20 23 23 24 23 25 28 33 37 34 41
12 10 12 12 13 13 13 14 16 19 23 20 19 19 20 19 18 19 19 22 25 28 26 25 26 23 22 21 19 20 23 23 23 22 25 31 39 37
12 14 15 15 16 16 17 18 20 20 24 23 21 21 22 22 22 21 22 23 22 24 25 28 31 29 31 30 27 24 21 22 23 22 23 23 25 37
16 17 18 18 18 18 18 19 20 20 23 25 24 23 23 23 24 24 23 23 23 23 25 27 30 34 36 33 33 37 32 26 24 24 24 24 24 24
20 19 18 17 17 17 18 19 20 21 22 24 27 24 24 25 26 26 27 27 27 28 30 31 33 36 34 36 39 34 35 39 34 29 27 24 24 24
17 16 16 17 19 19 20 22 23 24 24 25 27 27 26 25 27 29 29 27 28 27 28 29 29 26 24 28 37 38 38 36 37 37 32 29 29 27
19 19 19 20 25 28 26 24 24 25 25 26 27 28 27 26 27 27 29 28 28 27 28 29 27 27 29 33 36 38 39 40 39 38 37 35 33 32
23 23 23 25 24 25 28 28 26 25 27 26 26 27 27 24 22 23 25 25 27 23 26 30 27 27 28 28 28 28 26 35 39 39 40 38 35 33
24 24 24 23 24 22 23 25 25 25 26 26 27 28 27 23 22 22 22 24 24 21 21 24 20 21 25 25 28 30 32 36 36 37 38 37 36 36
23 23 24 24 22 22 21 21 21 21 22 23 25 26 26 24 24 25 26 26 26 25 22 25 22 25 24 25 28 27 27 33 30 33 36 36 36 33
22 21 22 22 21 22 21 22 22 23 23 27 27 27 29 29 28 24 24 25 29 29 25 25 24 24 24 26 26 25 27 29 33 32 32 33 35 35
21 20 20 20 20 20 19 21 23 24 22 22 21 21 24 25 25 28 27 28 27 23 22 24 22 21 22 22 22 22 25 30 31 36 35 31 30 31
20 20 18 20 21 21 23 26 23 23 22 21 21 21 21 22 23 25 26 30 31 28 23 20 15 17 19 19 12 12 15 17 21 29 36 36 32 27
20 18 17 16 24 23 20 16 18 16 16 15 15 16 17 18 19 20 22 23 26 28 24 19 20 20 18 16 15 14 15 15 17 18 26 37 35 26
15 16 21 20 17 11 13 12 9 10 11 11 12 13 13 15 18 22 22 21 22 24 25 26 23 22 19 18 15 12 14 14 16 13 16 23 31 28
16 11 17 13 9 10 9 8 7 9 9 9 10 10 10 10 13 14 16 18 20 19 22 25 27 27 24 20 18 17 16 10 12 14 16 19 25 27
11 10 9 9 10 10 10 8 7 8 9 8 8 9 9 9 9 8 10 12 14 13 14 15 16 19 20 21 21 18 16 15 15 15 16 16 18 21
7 8 10 11 11 12 13 12 10 10 9 9 8 7 8 9 8 7 5 7 9 9 10 9 11 13 14 18 22 20 18 17 15 17 18 16 17 17
8 10 12 13 13 12 12 12 12 12 11 9 10 9 8 8 9 6 6 5 4 4 5 7 9 11 13 16 15 15 17 16 17 17 17 17 16 15
9 11 12 12 12 12 13 12 12 12 12 11 9 9 8 8 8 7 6 4 4 4 4 6 7 10 11 10 7 10 13 16 15 17 16 18 20 22
10 11 11 11 11 12 12 13 14 13 13 14 12 10 9 9 8 8 6 8 5 4 1 1 6 8 12 11 8 10 12 10 12 11 11 12 9 10
10 10 10 10 11 12 12 13 13 14 13 13 13 12 11 10 9 8 9 7 6 5 4 4 3 2 3 4 4 8 4 5 5 7 10 11 8 4
10 10 10 10 11 11 12 12 13 13 13 13 13 14 13 11 10 8 8 8 7 6 5 4 4 3 2 2 3 3 4 1 1 2 5 7 9 10

GFSNE_850_spd_003.txt.gz
Wind_Speed
19 15 14 14 15 12 12 11 11 12 18 15 14 15 16 16 17 16 14 17 18 19 23 25 24 23 26 26 26 26 26 27 26 27 27 26 29 33
15 14 14 13 13 16 16 15 15 14 19 18 19 19 18 16 16 16 16 17 18 19 21 24 26 25 24 26 28 29 29 28 27 27 27 26 26 27
18 18 18 18 18 19 19 20 21 21 24 24 20 19 19 20 21 20 20 20 21 25 24 23 27 32 28 29 28 29 29 29 29 28 28 28 27 26
19 21 22 22 22 21 21 22 22 22 23 26 23 23 22 21 21 22 22 21 22 22 24 25 25 27 30 36 34 33 33 31 30 29 29 30 27 26
23 24 24 24 23 22 21 21 21 21 22 24 25 24 24 23 23 23 23 24 24 23 24 26 24 23 29 32 35 39 37 35 36 35 32 30 30 28
24 24 23 23 23 22 21 21 21 22 23 25 27 27 26 25 25 26 26 25 25 23 23 25 27 26 24 26 29 33 37 40 38 37 38 38 35 33
25 26 26 25 26 29 29 29 25 24 24 26 28 28 27 25 25 24 25 23 23 21 22 24 23 25 29 27 28 32 33 36 40 43 41 40 39 39
26 26 27 27 26 25 23 27 31 25 24 26 28 28 26 24 22 22 22 22 23 23 23 25 24 25 24 22 19 26 25 27 28 38 42 43 42 40
26 26 26 26 26 25 25 26 23 24 25 25 28 28 27 25 23 23 23 22 22 19 19 22 19 21 22 24 29 27 19 24 26 31 32 40 44 44
25 25 25 25 25 25 21 22 24 23 22 22 24 25 24 23 23 25 25 25 24 21 20 25 23 24 24 25 26 32 30 29 29 30 35 38 39 41
23 22 23 24 25 28 25 23 23 23 21 24 26 28 29 29 29 26 25 22 24 24 23 27 29 28 25 29 29 30 31 32 35 37 39 39 38 37
22 22 23 23 23 21 22 23 23 21 20 23 22 22 20 23 24 29 28 30 30 29 22 23 25 24 25 24 25 25 26 27 32 32 35 33 31 29
24 23 21 21 18 17 20 23 24 26 26 23 22 22 22 24 25 23 27 28 31 34 28 23 21 18 23 25 24 22 15 16 20 21 28 33 35 34
22 20 19 19 24 26 24 19 19 20 17 14 16 16 17 16 18 21 22 26 29 31 26 25 28 23 21 19 18 18 18 20 19 18 19 23 26 33
18 21 19 19 20 11 12 14 9 7 11 12 12 13 13 14 15 18 21 23 25 26 26 24 25 28 22 20 18 19 18 16 17 17 16 16 21 23
18 12 16 13 9 11 11 8 7 8 9 9 11 11 10 9 12 14 15 15 18 21 21 22 24 26 27 24 22 22 19 17 11 12 15 14 15 18
13 13 12 12 11 11 10 9 7 8 8 9 9 10 10 8 9 10 9 10 12 13 14 16 16 19 24 24 24 23 20 20 17 16 15 14 14 18
10 12 13 13 14 14 13 12 11 11 10 10 9 9 10 7 9 8 8 6 8 9 10 11 12 12 13 17 20 21 19 19 17 15 16 18 15 14
11 12 13 15 15 15 15 14 13 14 13 10 9 10 10 8 8 6 6 6 7 5 5 6 7 10 13 15 14 17 21 18 19 19 19 15 17 13
11 13 14 14 13 13 14 15 15 14 13 12 11 9 9 8 9 8 7 8 6 7 5 4 5 8 6 5 2 6 13 14 15 14 15 11 15 15
12 12 12 12 13 13 13 13 15 15 13 11 12 12 10 9 9 9 8 8 6 6 6 5 9 8 10 12 11 12 13 10 10 12 9 8 10 11
11 11 11 11 12 12 12 12 14 14 15 13 12 13 12 10 10 9 10 9 7 6 5 8 8 6 4 4 6 5 8 10 4 5 7 11 8 4
10 10 10 10 11 11 11 12 13 12 13 14 12 12 12 12 10 10 9 8 8 8 7 6 5 6 6 5 4 4 8 3 2 4 10 5 8 12

GFSNE_850_spd_006.txt.gz
Wind_Speed
26 28 22 19 18 19 18 19 19 21 24 19 19 18 20 18 19 8 18 15 17 19 22 23 25 22 22 21 21 20 21 21 22 23 23 23 24 27
23 24 22 19 20 20 20 21 22 24 30 25 23 20 15 21 18 14 16 17 13 15 17 19 21 24 24 23 23 23 22 21 22 23 25 26 26 27
22 22 24 23 23 22 22 22 23 23 27 27 22 22 20 19 15 19 21 16 18 20 21 21 22 26 30 28 26 26 25 24 24 24 24 26 26 25
22 23 26 27 29 27 23 22 23 23 25 30 26 25 26 25 22 20 15 16 19 21 20 19 23 22 24 25 30 34 31 30 29 27 26 25 25 27
22 26 26 27 27 28 27 26 24 22 21 23 25 24 23 23 24 23 21 19 19 20 22 23 22 23 24 28 29 29 34 39 36 34 31 30 28 27
36 31 32 27 27 28 26 23 24 26 26 25 26 23 22 22 24 27 29 28 27 22 21 21 21 23 24 25 26 28 30 34 40 41 38 34 34 33
36 37 31 28 29 27 26 28 25 27 33 35 34 28 23 22 22 18 18 16 16 15 17 23 23 18 16 23 27 27 26 26 29 34 42 41 39 37
39 41 29 25 27 27 22 25 24 26 27 27 28 27 28 26 26 21 19 17 17 20 18 21 25 27 23 19 19 21 30 32 31 27 23 30 38 42
36 28 29 27 27 25 23 23 24 23 25 29 28 28 31 31 33 33 30 23 21 19 22 23 24 26 27 31 27 25 27 27 26 31 30 27 26 34
28 27 27 27 26 25 24 24 23 24 27 26 27 29 26 22 23 24 25 27 29 27 22 26 27 29 29 30 28 28 28 30 31 30 30 31 32 33
27 24 24 27 27 23 23 25 25 25 22 22 25 28 27 27 28 30 31 29 28 24 23 25 27 30 30 32 32 32 30 29 31 32 35 35 36 36
28 28 27 24 27 25 24 24 25 23 19 24 25 25 27 27 22 23 29 32 32 31 31 27 24 22 25 27 27 25 25 26 25 25 28 31 35 36
29 26 21 20 19 20 23 24 26 27 29 30 28 26 22 21 23 26 28 26 26 31 23 21 25 25 24 22 21 22 24 24 22 17 18 21 28 31
24 23 24 23 23 23 18 13 14 17 16 11 12 16 17 16 16 14 18 23 24 26 23 25 23 23 26 27 24 19 17 17 18 19 21 19 19 20
22 19 15 18 18 10 12 11 12 7 12 10 11 12 13 15 15 15 16 18 22 25 24 22 22 23 22 25 24 25 21 20 18 19 20 16 18 18
18 16 16 15 9 14 12 11 8 8 8 9 10 10 10 9 10 10 12 12 14 15 14 17 21 22 24 24 23 26 23 22 20 22 14 15 17 18
14 16 16 14 15 16 13 11 9 10 8 9 8 9 10 9 7 7 9 9 11 11 11 11 12 14 17 20 23 24 23 23 22 19 19 18 14 14
13 15 16 16 15 17 16 13 13 14 12 10 9 9 10 9 8 7 9 7 9 7 8 8 10 11 13 15 17 19 18 18 18 16 19 18 18 15
14 14 16 16 15 15 15 15 18 16 12 12 11 10 10 7 10 9 8 9 8 9 7 10 5 6 13 17 16 13 16 17 19 20 19 19 21 18
14 14 15 16 15 14 14 14 17 17 14 11 11 11 9 9 9 9 6 8 8 9 5 3 4 8 9 6 7 7 6 16 18 19 18 17 14 12
15 13 13 14 14 13 13 11 13 15 15 10 11 12 12 10 9 9 9 7 7 6 8 10 8 6 5 5 8 13 8 5 8 10 11 11 8 11
14 12 12 12 13 12 12 10 11 11 11 10 9 12 13 10 10 10 9 8 8 7 6 6 7 9 5 5 4 4 6 9 6 5 4 8 11 5
14 13 11 13 13 13 13 11 11 12 10 10 7 9 12 10 10 10 8 8 9 8 5 7 5 5 7 8 4 4 7 5 5 5 6 9 5 10

GFSNE_850_spd_009.txt.gz
Wind_Speed
20 21 22 22 24 21 19 21 24 23 26 27 28 21 17 19 20 20 14 13 17 28 14 18 23 24 21 19 18 19 20 22 22 21 21 21 21 20
20 20 21 21 23 27 23 20 18 19 28 25 26 21 18 15 15 19 20 9 13 19 15 17 17 17 19 21 20 18 18 19 21 21 22 21 20 19
19 17 19 19 21 26 29 26 27 26 25 27 23 19 18 22 20 16 18 18 10 9 8 13 14 17 18 20 22 22 20 20 20 20 22 22 22 22
19 22 25 31 34 28 24 26 25 24 26 29 26 24 19 17 17 14 14 14 13 11 17 19 18 16 17 17 17 19 23 26 24 24 23 23 23 24
31 34 34 32 32 31 27 26 28 25 23 24 27 26 23 21 23 21 17 20 18 14 12 15 18 18 20 21 22 23 23 22 25 30 31 29 26 25
36 34 35 36 35 33 30 26 26 28 30 30 29 30 31 30 23 22 22 17 18 21 22 20 17 16 15 16 18 20 22 23 22 23 26 33 34 32
39 38 38 37 28 21 21 21 21 24 25 24 27 27 28 28 26 24 21 19 16 12 10 12 15 15 15 17 19 20 22 24 25 26 25 24 25 31
31 37 36 27 21 21 23 24 22 23 22 22 23 24 25 24 24 26 30 27 23 19 19 20 19 20 21 21 18 19 26 31 32 31 30 27 26 27
33 33 31 24 21 21 24 24 24 20 20 20 20 22 22 21 23 21 21 22 22 27 25 26 23 23 23 23 24 24 25 29 29 28 25 26 29 28
31 31 27 26 24 24 24 24 24 26 24 22 24 27 26 26 22 21 21 22 23 23 23 29 30 29 28 28 25 24 23 23 24 31 35 33 31 30
28 33 27 26 21 21 23 21 22 21 19 17 16 20 21 23 24 23 25 26 29 28 23 23 23 25 27 29 30 29 28 28 29 28 28 32 33 34
34 29 21 17 17 19 18 20 21 20 19 20 21 21 24 26 25 25 26 24 23 28 23 23 28 27 26 22 21 20 20 22 24 24 21 26 29 31
27 24 22 20 20 19 21 21 19 17 17 19 20 19 16 15 15 16 20 27 30 28 21 20 20 18 21 23 23 19 16 18 19 18 17 17 17 21
23 20 17 20 19 18 12 11 12 12 9 8 9 9 9 10 10 11 13 15 18 22 20 20 21 20 21 21 23 21 20 16 15 16 17 17 20 19
19 16 17 19 13 11 13 11 10 9 8 7 8 8 9 9 9 8 9 11 14 17 19 20 22 22 23 23 23 22 20 19 21 19 16 18 20 18
16 16 17 11 11 14 13 10 10 9 7 8 8 7 7 6 6 5 8 7 6 6 9 12 14 18 22 22 22 23 20 19 18 18 20 19 17 16
16 15 17 16 14 16 16 12 12 12 9 7 6 7 7 7 5 4 7 2 6 6 4 5 7 10 14 16 19 19 20 20 20 19 18 18 18 17
14 14 16 17 16 15 14 15 16 15 10 9 8 8 8 8 8 6 6 6 5 5 5 5 4 8 10 13 14 17 18 17 15 11 14 17 20 15
14 14 15 16 16 14 13 14 17 17 10 9 9 9 9 8 7 8 5 6 3 8 4 6 7 5 7 14 12 11 13 10 14 16 17 19 21 20
15 13 14 15 16 14 12 12 11 12 12 9 9 10 10 9 9 8 7 6 5 5 6 6 5 4 5 6 7 8 8 7 11 15 18 20 20 19
17 14 12 14 15 14 11 10 11 12 11 7 9 9 9 10 10 8 7 6 6 5 5 6 6 4 3 1 1 3 1 3 5 8 11 12 11 8
16 15 13 14 14 14 13 12 13 14 12 6 6 8 6 9 11 10 9 8 8 8 6 5 4 4 5 5 4 3 1 4 6 3 2 5 7 6
15 14 15 14 13 14 14 13 14 14 14 10 5 6 6 5 7 7 7 7 8 10 3 2 2 3 3 3 2 2 4 6 5 3 2 5 6 6

GFSNE_850_spd_015.txt.gz
Wind_Speed
21 22 21 21 21 20 20 22 20 22 27 26 21 20 15 16 12 12 13 16 17 19 23 27 30 23 25 21 17 20 22 24 26 22 19 19 14 17
23 23 22 21 22 24 27 29 30 24 27 26 31 25 19 20 19 18 14 13 18 19 22 25 24 24 31 23 17 12 15 20 23 24 22 21 19 18
26 25 25 27 31 32 33 36 35 30 29 31 29 28 21 20 20 22 21 18 17 19 21 19 15 20 32 28 31 25 14 9 14 18 21 21 19 18
26 28 31 33 35 36 37 35 33 30 30 34 31 26 23 22 22 23 20 22 20 18 19 23 25 10 19 21 14 18 27 14 12 12 13 17 16 15
27 33 35 34 32 31 32 32 29 25 23 26 29 28 25 22 23 22 21 21 21 18 16 20 31 16 13 15 18 19 12 19 16 10 15 17 17 17
33 31 29 28 30 30 31 27 23 23 21 23 23 22 22 21 22 22 23 23 24 20 14 10 15 19 12 8 11 13 19 15 11 13 11 10 13 17
30 28 27 27 27 25 24 24 24 23 23 20 19 20 21 20 20 19 19 20 21 21 18 13 6 8 14 6 6 10 14 18 17 14 13 12 12 13
29 29 29 28 26 26 24 22 22 21 22 23 21 21 17 20 19 18 19 18 17 14 13 20 16 11 8 12 11 10 11 14 16 16 16 14 14 14
28 28 28 25 22 22 18 18 18 18 19 22 24 22 23 14 14 16 17 19 20 18 17 18 21 22 18 13 12 15 12 15 17 18 18 16 14 13
25 22 22 22 21 20 20 22 18 17 17 16 16 21 22 21 22 22 21 21 22 21 17 20 16 19 24 22 22 18 17 16 16 17 17 18 19 20
20 21 18 18 15 21 20 20 19 21 22 21 20 18 12 15 15 16 17 16 18 18 13 14 16 15 17 22 23 23 22 21 21 21 21 20 21 20
21 19 15 17 20 20 16 17 18 17 14 17 16 16 21 21 20 20 19 19 20 21 18 16 15 9 5 10 15 19 19 21 23 24 24 24 24 24
21 20 19 19 16 16 16 16 16 18 15 15 12 9 8 13 19 21 23 25 25 28 26 19 19 15 10 11 5 7 14 14 14 15 17 18 20 22
21 19 20 18 15 16 16 14 13 11 9 8 9 7 6 5 7 9 11 13 14 18 16 14 22 21 17 14 12 7 12 15 14 13 14 14 14 15
20 17 17 17 15 13 11 11 12 11 11 10 10 10 9 8 7 8 9 11 12 11 11 13 16 15 16 16 15 11 8 8 10 13 16 17 17 15
18 17 16 15 13 10 10 11 13 10 11 10 9 10 9 7 4 4 6 8 8 7 4 8 12 14 16 17 16 15 12 10 9 8 15 20 20 19
18 15 16 15 15 12 9 12 14 12 10 11 10 9 8 7 5 4 4 4 1 3 4 3 5 8 11 13 15 14 12 12 11 12 17 19 20 19
18 16 16 16 16 16 15 13 13 13 10 11 10 8 7 8 8 6 5 4 3 2 1 6 5 8 9 10 11 12 10 12 11 14 17 19 21 19
17 16 15 16 17 15 15 15 16 13 9 8 9 8 7 6 7 7 5 3 2 1 3 3 3 5 7 7 6 6 9 7 10 11 12 16 16 13
15 16 15 15 16 15 16 16 16 14 9 6 7 8 8 7 7 7 6 5 4 3 3 2 1 2 4 6 6 5 9 11 11 10 10 12 14 16
14 14 14 14 14 14 13 13 15 15 14 8 7 8 7 7 6 7 6 7 7 7 6 6 6 5 5 6 6 5 5 4 4 4 5 7 9 12
13 13 13 13 13 13 13 13 13 13 12 11 9 9 8 7 7 7 8 9 9 10 8 5 4 4 6 6 6 7 6 4 3 4 4 4 4 3
12 12 13 13 13 12 12 12 13 13 13 12 11 10 10 8 8 8 9 9 11 10 6 2 2 3 5 6 5 2 4 4 4 3 3 5 4 4

GFSNE_850_spd_021.txt.gz
Wind_Speed
19 19 22 23 23 25 25 23 21 31 37 37 35 28 29 29 29 27 25 26 26 24 20 21 21 19 17 15 19 25 26 32 28 31 30 29 28 25
20 23 23 26 27 26 27 27 24 28 39 34 34 31 29 28 27 27 26 27 26 25 27 25 26 24 21 18 17 22 28 28 24 31 29 30 30 29
23 25 25 27 27 23 24 25 24 24 31 41 32 30 30 27 26 25 25 24 22 25 24 23 23 24 22 20 18 18 23 30 28 27 25 30 32 27
24 26 29 28 29 25 24 24 25 25 27 35 33 28 25 25 25 24 22 21 23 23 26 23 22 20 20 21 19 16 24 22 27 19 30 29 31 29
26 30 32 30 27 25 25 26 24 23 23 26 33 27 26 22 21 20 20 24 23 23 24 22 20 19 18 17 20 18 22 25 27 30 21 29 31 27
30 32 33 31 27 25 24 24 23 22 22 24 27 26 22 21 19 18 17 17 21 20 20 22 23 21 19 16 16 15 21 30 24 24 18 23 20 27
31 30 31 30 26 22 19 20 21 22 22 21 24 24 22 20 19 18 18 17 20 16 16 13 12 12 17 15 12 12 18 25 29 26 19 19 21 18
28 29 27 23 18 20 19 16 16 23 24 24 25 22 21 20 19 17 16 14 15 12 10 10 8 11 11 14 14 13 11 21 28 28 24 18 21 18
27 26 21 18 18 17 18 22 22 21 22 24 24 23 22 20 19 18 17 15 14 11 11 14 11 12 14 15 15 14 13 16 25 31 28 23 18 15
24 21 18 18 17 17 21 20 18 20 19 17 19 21 21 20 19 21 17 17 17 15 13 16 14 15 14 20 20 13 10 11 22 24 22 21 19 14
21 17 17 17 17 17 19 19 20 18 17 20 19 20 20 20 20 18 19 14 16 17 16 15 13 11 10 13 19 20 13 16 13 18 21 20 20 17
19 19 19 17 16 18 18 18 18 19 20 18 16 14 13 14 14 15 16 15 14 6 8 10 9 8 5 7 13 20 20 16 16 18 20 20 18 15
20 20 18 18 18 18 16 13 17 20 19 16 15 13 13 12 11 9 11 17 18 18 15 12 9 9 7 4 3 14 22 23 23 21 20 19 19 19
19 20 19 19 20 18 16 15 16 18 15 14 13 12 12 12 11 10 10 12 13 17 15 15 15 14 12 10 8 5 9 22 25 26 26 26 25 26
18 19 19 18 19 18 16 16 17 16 13 13 14 13 13 11 10 10 8 9 11 10 11 13 16 15 13 14 10 8 6 10 18 18 18 18 20 22
17 18 18 16 16 15 15 14 15 14 13 13 13 12 11 12 11 12 9 5 7 8 9 11 14 15 15 12 12 11 12 7 15 18 17 17 19 19
17 16 16 16 16 15 15 16 16 14 10 11 12 13 12 13 13 12 11 11 7 4 1 1 2 10 13 12 12 12 11 14 14 15 17 17 18 20
15 15 15 15 16 16 16 16 17 17 13 10 12 13 13 13 13 12 9 9 8 8 9 3 2 5 8 10 11 9 9 10 14 16 16 15 14 15
15 14 14 14 15 15 15 15 16 17 16 13 12 12 12 11 11 11 11 10 8 7 6 7 3 4 8 7 6 9 9 10 10 11 13 14 14 13
15 14 13 13 14 14 14 14 14 15 15 15 14 13 12 12 11 11 10 11 9 8 7 5 3 2 2 3 4 5 7 9 8 6 6 11 10 12
16 14 14 13 13 14 14 14 14 14 14 15 15 13 13 12 11 10 10 9 10 9 7 6 3 2 2 2 1 3 5 6 6 6 5 7 7 7
15 14 13 13 13 13 14 14 13 13 13 13 13 13 13 12 12 10 10 10 9 10 8 5 2 1 2 2 2 3 5 5 4 4 4 5 5 4
15 15 13 13 12 12 13 13 13 13 13 13 13 13 12 11 11 10 9 10 9 9 6 2 0 2 3 3 3 2 3 7 6 4 4 5 5 5

GFSNE_850_spd_027.txt.gz
Wind_Speed
20 16 15 15 17 17 18 23 27 32 34 33 33 31 31 30 31 31 32 33 34 36 36 38 35 33 30 31 29 27 25 23 23 27 27 32 35 35
16 15 15 19 19 19 23 26 27 31 38 34 35 33 31 30 29 31 31 31 33 31 32 31 29 31 28 30 30 29 28 26 25 24 28 32 35 33
14 15 17 17 18 22 27 28 29 30 34 38 37 34 30 29 28 28 30 31 31 31 30 30 30 29 26 29 29 28 27 27 27 25 25 29 33 33
12 14 16 17 22 25 25 25 27 29 31 36 36 32 29 28 29 28 28 25 28 25 26 29 28 29 30 29 30 30 26 26 27 27 25 26 30 35
13 14 18 21 22 20 21 23 24 25 26 28 32 30 29 27 27 26 26 26 24 25 24 26 32 28 22 26 29 29 25 24 26 26 24 25 25 32
15 17 19 18 18 19 22 20 20 22 23 24 26 28 26 26 26 28 25 21 23 23 25 25 23 20 18 24 25 25 24 25 26 24 23 23 21 27
18 17 16 19 26 25 22 20 19 20 20 22 26 27 27 27 26 27 27 25 22 23 23 23 23 16 20 23 18 16 21 23 24 22 17 23 22 17
16 15 15 16 16 21 19 24 23 20 23 24 26 27 27 27 24 24 24 24 26 21 21 21 19 14 12 13 15 10 17 21 21 17 13 21 22 18
13 14 15 14 17 17 18 21 20 21 23 25 26 25 26 25 25 26 25 24 24 24 22 25 17 14 9 12 17 17 21 24 21 14 13 17 17 15
13 14 14 14 16 23 25 19 19 18 19 19 22 25 27 26 22 22 23 25 26 23 20 25 21 20 15 15 20 22 24 23 19 12 12 18 12 15
13 13 15 15 16 22 23 20 19 18 17 21 24 25 21 19 18 23 23 20 22 21 18 21 20 20 18 21 23 19 20 19 17 13 14 22 16 18
12 11 16 23 23 22 22 19 18 18 21 22 20 18 17 17 19 19 20 22 18 20 17 10 10 10 15 17 16 12 14 13 15 13 11 15 23 15
12 11 10 21 20 20 19 17 17 24 20 17 19 16 16 15 16 17 16 19 19 18 16 13 13 14 12 14 9 5 8 11 13 5 9 19 20 17
13 12 14 18 18 17 17 16 18 16 17 17 15 15 15 16 17 17 22 19 18 20 17 15 16 11 12 13 12 8 4 6 11 4 6 18 23 20
13 14 15 16 15 15 14 17 17 14 15 15 15 15 15 17 18 18 18 17 17 14 14 14 17 14 12 13 11 10 5 3 6 6 3 5 10 17
11 15 19 14 14 16 15 12 13 14 14 14 16 15 16 15 16 17 18 19 23 8 11 8 10 12 12 11 9 9 5 4 3 9 7 7 8 8
18 18 11 11 11 11 12 12 12 12 13 13 13 15 16 16 14 15 16 16 17 16 15 7 8 9 13 12 10 7 8 3 2 7 8 7 8 9
17 12 10 13 12 11 11 12 11 12 13 12 13 13 14 15 16 14 14 14 14 14 13 14 14 5 6 9 10 6 7 7 7 5 7 7 6 7
17 11 12 13 12 11 12 11 12 12 14 12 12 12 13 13 13 14 14 14 14 13 12 13 13 12 11 10 8 11 3 10 9 8 6 6 8 7
16 13 13 13 13 11 11 11 12 11 10 11 11 12 12 12 12 12 12 13 13 13 12 11 11 11 7 10 2 6 7 7 7 7 8 8 9 12
18 15 15 15 16 14 13 15 13 11 11 11 10 11 12 11 11 12 11 12 12 11 12 12 12 10 7 2 2 3 5 7 6 7 5 4 5 6
24 20 17 17 17 17 16 15 11 11 11 11 11 10 10 10 10 12 11 11 11 11 11 12 11 7 5 4 6 3 3 4 7 8 8 8 6 6
23 22 22 21 20 20 17 15 13 11 11 11 11 8 10 8 9 9 11 10 9 11 12 11 10 7 5 5 2 4 3 5 3 3 4 7 9 8

GFSNE_850_spd_030.txt.gz
Wind_Speed
24 26 22 20 14 17 20 20 21 27 32 30 31 29 22 27 30 33 35 36 35 35 36 37 36 31 30 30 34 32 28 25 25 27 27 28 30 26
23 21 17 13 16 19 17 18 25 27 35 31 29 28 32 33 36 39 33 37 39 36 36 31 31 32 32 30 28 30 30 27 27 29 29 29 28 31
23 22 13 11 14 17 19 22 23 24 29 33 34 32 32 32 39 33 33 34 31 30 29 31 31 31 32 31 29 27 27 30 29 29 31 30 30 27
13 12 13 14 17 20 22 23 26 29 31 31 29 30 31 33 29 29 29 30 30 29 30 29 28 31 32 26 26 29 30 29 29 29 30 31 30 28
15 14 15 16 20 21 22 25 29 26 24 28 33 34 29 27 28 28 29 29 29 28 24 26 26 29 29 28 28 24 27 30 28 29 30 30 29 29
14 15 17 18 20 22 27 30 25 23 26 27 28 29 27 27 27 28 28 29 30 27 26 27 29 27 29 26 20 23 22 25 28 28 29 27 27 28
14 17 16 18 22 24 23 24 25 28 29 23 25 28 28 28 28 28 29 29 30 26 26 27 27 27 26 26 20 19 24 24 25 24 24 26 27 23
14 16 17 15 17 20 20 20 25 29 22 25 30 31 32 29 28 27 31 31 31 30 28 30 25 27 27 16 15 17 13 22 13 18 20 22 20 20
14 15 16 13 19 21 25 27 27 19 19 22 27 24 24 26 31 34 30 26 28 29 29 33 27 27 22 22 17 14 14 15 18 20 21 20 18 18
13 16 15 15 22 25 24 27 24 20 14 17 23 27 28 30 21 22 24 28 28 25 24 27 27 28 23 20 19 20 21 23 23 23 17 15 15 14
16 12 14 18 23 24 26 25 23 21 12 19 26 22 18 18 18 23 26 26 28 26 23 20 23 20 18 20 20 21 21 15 18 17 15 12 11 9
13 14 16 18 22 24 25 23 22 20 23 22 17 18 16 17 17 17 19 23 23 27 23 20 21 15 19 13 15 13 13 13 13 11 14 11 14 12
17 16 11 20 22 22 21 19 18 21 18 20 21 18 17 17 18 16 15 20 26 29 27 19 20 18 16 17 20 20 5 9 11 10 13 13 19 15
18 17 15 18 18 17 16 15 15 16 18 23 17 19 19 19 19 18 19 20 23 28 21 16 18 17 17 16 17 13 18 5 8 8 5 17 18 20
17 15 13 16 15 14 13 15 16 18 18 23 19 21 18 19 19 18 19 18 20 24 16 11 14 17 16 17 17 13 13 10 7 5 2 15 18 21
19 14 17 19 11 13 13 14 16 16 17 19 23 18 18 19 20 17 18 21 19 18 19 6 10 13 12 12 12 12 7 9 2 3 1 6 8 10
22 23 22 13 13 14 12 13 15 16 17 18 22 19 18 20 17 16 17 19 17 18 17 16 18 7 10 13 13 9 5 8 3 6 2 1 3 3
26 25 21 12 14 16 14 12 15 16 18 21 15 17 18 20 17 15 17 16 18 17 16 15 19 16 9 5 9 8 5 4 4 1 5 7 8 9
24 22 17 12 15 17 14 12 16 16 20 15 17 15 17 16 16 15 14 16 17 14 15 15 16 17 13 18 5 6 2 5 6 4 3 6 6 10
21 21 17 16 16 17 15 13 18 20 19 14 17 11 14 16 14 15 15 14 15 18 15 12 14 13 11 12 12 2 5 1 8 5 4 5 5 6
21 21 19 16 15 19 20 18 20 20 15 13 12 12 14 13 12 12 17 13 11 15 15 14 13 9 6 5 12 4 2 4 2 4 4 3 3 4
21 23 25 23 21 20 22 22 22 19 13 13 14 16 13 14 9 11 12 16 12 12 14 10 11 10 8 8 8 0 3 1 3 5 5 5 4 5
20 21 22 23 21 24 26 26 23 19 16 16 15 13 12 13 6 9 10 11 15 12 13 8 11 8 11 5 5 7 6 4 1 1 2 4 5 2

GFSNE_850_spd_033.txt.gz
Wind_Speed
22 23 24 20 17 21 15 12 14 21 31 29 24 22 20 25 31 36 41 41 40 41 37 37 35 30 28 26 26 27 27 29 32 30 29 28 26 27
28 26 21 22 18 11 8 11 13 17 25 28 32 32 33 34 34 36 39 41 36 32 29 26 25 25 27 27 27 27 27 28 28 31 30 29 28 28
25 17 14 13 11 11 15 18 21 23 28 34 35 37 38 37 39 38 30 28 27 28 26 26 25 25 25 27 28 30 28 28 26 28 29 29 30 31
17 17 16 14 14 18 22 25 27 24 29 36 34 34 35 33 27 26 24 24 24 24 23 26 23 24 24 26 28 24 24 24 26 28 29 30 32 33
17 16 15 17 20 23 24 23 26 29 26 25 32 30 25 22 23 23 25 26 26 26 24 24 22 24 27 29 28 27 25 27 27 27 31 32 31 32
20 17 16 18 20 21 24 27 26 27 25 28 31 26 25 24 24 28 29 30 32 31 30 25 22 24 26 26 25 28 27 26 27 24 27 29 30 31
19 19 18 20 23 25 23 25 27 26 29 31 27 27 28 28 27 25 30 38 38 31 26 24 28 25 24 23 25 26 22 24 24 26 26 24 27 29
19 18 18 22 23 21 22 24 24 28 30 26 25 26 27 24 27 32 35 31 32 25 29 28 23 22 22 21 24 21 9 19 13 20 21 17 21 24
19 17 18 21 20 22 22 25 23 24 22 20 20 23 27 27 31 30 23 25 28 28 31 30 25 24 21 24 19 17 19 15 16 17 18 19 22 22
20 18 19 21 20 22 23 23 24 22 19 14 18 25 29 25 18 20 23 27 25 25 26 31 24 21 20 17 11 12 18 19 19 20 21 21 22 17
20 18 19 19 21 22 22 24 24 20 17 16 15 14 13 12 13 16 19 23 26 28 27 21 27 25 20 18 11 13 24 19 17 16 17 20 18 15
21 20 18 19 20 20 22 24 22 18 17 15 17 15 11 13 13 14 17 20 22 29 27 29 31 19 18 16 18 18 24 10 13 14 15 14 13 15
19 15 18 19 19 19 21 20 17 16 16 16 21 18 16 15 15 15 14 16 21 26 26 32 26 21 15 20 20 16 16 22 8 10 13 12 12 18
19 17 16 18 17 17 16 13 12 14 17 18 21 21 22 17 17 17 17 16 15 20 19 24 17 14 15 19 20 20 13 19 8 8 15 12 15 21
20 18 17 15 13 16 11 11 12 15 18 18 21 22 22 17 19 18 15 13 13 12 15 20 8 16 17 17 19 16 16 13 12 10 10 9 18 23
21 20 18 17 18 16 13 13 13 15 17 18 21 23 19 18 19 14 16 16 19 15 10 12 13 16 12 14 13 12 9 11 14 8 7 3 10 18
21 22 22 23 23 18 14 15 14 14 17 19 21 23 19 18 18 13 14 16 17 18 16 12 12 15 12 9 10 8 7 8 11 3 5 7 11 12
22 23 27 27 24 19 15 16 15 14 18 20 22 20 18 17 16 14 15 14 16 15 14 16 17 15 12 7 5 4 4 5 5 7 3 5 5 6
26 26 26 25 23 18 15 17 16 15 19 21 24 18 16 14 13 14 16 15 14 13 12 13 14 15 15 16 11 2 3 1 3 1 2 1 8 10
28 27 24 19 16 18 17 17 16 19 20 22 20 14 12 14 14 11 13 16 15 15 15 12 10 10 11 13 13 6 3 7 8 4 2 2 1 5
25 25 23 19 16 15 16 17 19 20 20 22 16 14 14 15 14 9 11 13 14 15 16 13 10 8 6 6 5 1 1 1 6 3 4 4 4 3
23 21 19 18 19 19 20 19 22 22 21 24 19 15 16 16 13 9 8 12 14 15 15 8 9 8 7 9 9 4 5 2 3 5 4 4 3 4
23 22 21 20 18 18 19 24 26 25 24 24 19 16 17 15 12 10 7 9 13 13 13 8 7 6 11 8 4 5 5 4 2 2 3 4 4 2

GFSNE_850_spd_036.txt.gz
Wind_Speed
23 27 30 29 21 21 23 22 14 17 23 25 24 26 29 32 32 33 36 38 39 39 39 33 24 22 23 23 23 24 25 27 29 31 31 32 32 29
28 30 30 21 15 16 14 10 15 17 23 28 31 32 33 35 35 35 35 34 32 27 24 23 22 21 22 22 23 24 25 27 29 31 32 31 30 31
28 28 22 19 19 16 14 14 17 21 26 31 30 34 32 32 31 27 24 23 22 22 22 21 22 22 22 21 22 22 23 24 25 30 32 30 30 27
26 23 20 19 17 17 19 21 23 22 25 31 31 29 30 28 24 23 21 21 22 23 24 24 23 22 23 24 25 26 27 27 28 29 31 32 31 29
25 21 23 19 20 19 21 22 22 26 25 27 29 30 31 26 25 24 23 24 23 27 31 29 26 24 22 23 25 25 24 25 29 29 30 32 34 35
23 21 22 22 23 20 21 25 27 25 25 27 30 32 30 28 24 24 26 29 34 27 17 15 16 18 22 24 24 24 25 27 30 28 31 33 29 30
22 23 22 23 23 22 24 24 24 25 27 28 31 30 29 27 25 27 31 34 27 20 20 23 22 18 19 18 19 21 23 24 21 21 23 30 33 32
23 23 22 22 22 22 22 21 23 24 26 28 28 27 26 26 29 31 31 26 30 23 27 23 22 21 18 14 15 17 20 22 12 14 18 28 28 26
24 24 22 23 22 22 22 21 22 23 24 24 25 24 27 29 28 23 21 23 25 23 25 28 22 20 18 15 14 15 14 16 18 15 14 15 18 23
24 24 23 23 22 23 22 22 22 22 22 20 19 21 21 21 20 19 22 21 25 26 23 28 25 25 24 16 11 8 11 15 23 24 23 22 23 22
23 23 22 23 22 21 22 22 22 21 19 17 15 15 16 15 15 18 19 22 28 29 22 23 30 31 23 18 10 10 13 15 24 21 23 23 22 22
22 22 21 21 20 21 22 21 22 18 16 15 12 14 13 16 15 14 16 19 21 27 20 30 30 24 20 18 13 15 14 15 21 17 17 18 19 21
22 21 20 20 20 20 20 20 19 16 14 15 15 16 17 20 16 15 15 16 19 23 22 21 31 21 17 20 21 18 16 17 20 14 15 15 18 20
23 21 20 21 19 18 17 18 16 15 14 15 18 18 20 24 20 19 17 15 15 19 19 16 20 18 20 24 23 20 14 12 16 10 13 17 17 19
23 22 22 22 19 15 16 16 16 15 14 15 18 19 20 23 21 19 14 13 15 14 13 13 15 18 20 18 20 18 16 12 10 21 14 16 12 12
25 22 23 23 22 20 19 18 16 15 16 16 18 20 22 23 20 16 17 17 18 15 8 8 10 14 18 13 13 14 11 13 18 19 13 6 3 8
24 22 25 26 25 24 21 19 17 14 17 16 18 20 23 21 19 15 14 17 15 17 14 10 8 11 10 9 9 8 8 9 12 15 12 11 8 3
27 26 28 27 26 25 24 21 19 14 17 17 17 20 23 20 17 14 13 15 15 14 15 16 16 13 8 9 8 5 5 7 5 8 12 6 10 14
32 30 28 26 25 25 25 22 21 14 15 17 17 19 22 16 13 13 13 14 15 15 15 15 13 14 14 13 9 10 6 6 3 4 7 9 8 8
34 31 28 26 24 22 21 21 20 17 17 16 16 18 19 16 14 12 13 14 14 16 16 13 9 10 12 13 14 10 7 12 2 1 4 6 6 8
32 34 27 24 22 21 19 18 18 19 17 17 17 19 19 17 14 13 13 12 13 15 15 12 12 10 7 5 5 3 2 4 5 1 2 3 2 1
27 32 26 22 19 17 18 19 19 19 20 23 19 20 19 17 14 13 11 12 11 13 13 10 9 6 4 7 4 3 3 2 0 0 1 1 2 3
25 26 26 22 21 20 16 18 19 20 21 21 20 20 19 17 13 14 11 11 11 12 11 8 5 5 6 6 4 2 5 5 3 0 2 2 1 2

GFSNE_850_spd_039.txt.gz
Wind_Speed
17 19 23 25 24 19 15 17 22 15 15 14 20 21 29 31 32 32 31 32 32 32 30 28 24 24 25 23 25 26 26 27 28 29 29 28 27 27
19 21 25 26 22 19 17 16 16 18 21 26 27 28 30 30 28 29 29 28 26 24 24 24 23 22 22 23 25 25 26 26 27 28 28 29 29 28
20 22 23 23 21 21 20 18 18 19 25 30 30 30 30 30 30 27 26 25 23 23 23 24 24 25 25 25 26 25 25 26 26 27 27 28 28 28
20 22 23 20 21 20 19 20 22 21 22 30 32 32 31 29 30 28 25 23 22 22 24 27 28 28 27 26 25 26 28 29 29 31 31 32 29 26
22 21 23 20 20 20 22 21 21 22 25 27 31 32 32 30 29 27 24 23 24 26 22 15 15 17 19 24 26 27 28 29 30 31 32 31 33 31
22 22 22 20 20 21 20 20 21 23 22 25 29 31 31 29 27 27 31 30 30 21 13 14 16 17 18 20 23 26 27 27 29 31 32 34 32 31
22 21 22 21 22 21 20 20 20 21 23 25 28 30 30 28 26 28 30 29 24 18 18 18 18 19 18 18 20 20 21 24 26 28 28 24 24 25
23 22 22 23 23 22 22 21 21 21 23 26 28 29 27 25 27 26 24 25 28 23 26 29 22 22 19 17 15 16 19 23 23 21 21 20 20 23
22 22 23 23 23 21 21 22 22 21 24 26 28 25 25 23 24 26 23 22 25 26 27 33 24 24 24 23 18 15 16 14 13 15 20 21 21 19
23 25 23 22 21 20 22 23 22 22 23 25 23 21 19 21 21 22 23 26 29 29 24 29 21 26 28 20 14 14 11 12 17 20 23 24 26 25
27 26 22 22 20 20 21 21 23 22 22 21 18 17 17 17 18 22 23 24 30 30 23 15 27 30 26 17 11 11 12 18 20 20 23 25 22 24
24 23 21 22 20 19 20 21 23 21 21 17 15 15 15 16 18 17 19 23 26 28 11 26 26 25 28 18 24 19 17 17 19 22 22 23 19 22
24 22 21 21 20 19 20 21 20 20 17 16 16 14 14 16 19 18 18 20 22 25 24 20 27 25 20 26 31 26 15 17 19 20 21 18 18 22
25 24 23 21 22 21 20 20 18 19 18 17 16 15 16 18 20 20 21 18 17 21 22 17 23 22 23 28 29 26 17 15 15 16 21 17 20 23
26 26 24 24 24 24 21 19 18 18 19 20 18 15 16 19 23 22 21 18 18 17 16 14 15 18 20 24 26 23 20 17 8 20 24 20 14 13
27 27 27 34 24 26 23 22 21 20 20 20 18 17 17 19 23 22 21 20 21 17 11 9 12 16 21 20 19 19 16 13 16 16 20 18 11 3
26 29 27 24 26 27 27 25 23 22 21 20 17 17 17 19 23 20 18 18 18 21 20 15 13 14 14 15 15 12 13 10 11 16 20 18 11 3
25 27 28 32 30 28 27 25 23 23 21 19 17 16 16 18 21 16 16 15 17 19 18 18 18 15 9 6 7 13 8 10 11 11 15 16 18 12
28 29 29 31 35 30 26 25 24 22 20 20 17 14 15 17 17 17 16 16 16 16 16 16 14 14 15 14 10 12 11 11 11 7 13 13 11 14
29 30 31 29 29 32 24 23 22 20 19 21 18 14 14 16 16 17 16 16 16 16 15 13 11 12 14 14 14 8 9 13 5 8 8 9 9 12
30 29 28 28 28 27 24 22 21 19 20 21 20 16 15 17 16 16 15 14 14 14 14 14 11 10 9 7 8 7 6 7 6 7 9 8 7 7
25 24 25 27 25 22 21 20 20 20 20 20 19 18 17 18 17 15 14 13 13 12 13 12 10 8 7 8 6 5 5 5 4 5 6 7 8 6
21 23 25 24 23 20 21 21 18 19 21 22 22 17 17 18 15 14 13 11 12 11 11 10 8 7 7 7 7 5 4 6 6 5 3 4 6 6

GFSNE_850_spd_042.txt.gz
Wind_Speed
14 13 14 16 18 19 16 15 15 15 19 17 12 17 19 25 28 30 30 30 29 29 29 29 28 26 24 25 25 26 27 28 26 26 26 27 27 28
15 13 15 17 18 17 17 17 16 17 22 22 22 22 24 26 26 27 28 28 28 27 27 27 27 26 25 26 27 27 27 26 25 26 26 25 25 25
15 15 16 17 19 18 18 17 18 20 24 26 25 26 27 26 27 27 26 26 26 25 25 25 26 28 29 30 29 28 28 27 27 27 27 26 26 26
17 16 17 17 20 18 19 19 21 21 23 27 28 29 28 27 27 28 26 24 24 25 26 26 25 22 19 20 22 28 30 29 27 28 28 28 27 27
17 19 19 20 20 18 20 20 21 22 22 26 29 28 29 28 29 28 26 27 26 25 20 16 14 16 18 20 21 22 23 28 30 29 30 30 31 31
20 22 20 22 19 19 20 20 19 21 22 24 26 27 28 28 28 29 30 27 27 22 15 14 15 16 18 19 21 23 24 25 25 28 29 29 31 31
22 23 22 21 20 20 21 20 20 21 21 22 24 26 28 28 27 27 27 29 28 16 20 20 19 17 18 18 19 21 21 20 22 25 28 29 28 29
23 22 23 22 22 21 22 22 22 21 20 21 23 26 26 26 25 24 25 26 23 24 30 31 25 20 15 19 21 23 23 22 22 24 23 19 21 22
21 22 23 24 24 22 22 23 22 22 21 21 24 24 26 23 23 24 24 24 26 29 29 32 24 19 19 22 19 20 20 21 19 16 17 20 22 24
21 23 25 27 29 20 22 22 22 22 21 22 24 24 22 21 20 21 25 27 28 28 25 29 18 21 21 19 11 14 16 18 19 21 22 23 26 26
20 24 26 28 25 22 22 21 21 22 21 22 23 21 19 18 18 21 24 25 30 31 22 14 24 28 24 18 11 20 19 18 23 27 27 28 27 29
23 24 27 28 25 23 22 21 22 21 20 21 20 18 17 16 17 18 21 23 24 27 16 24 25 23 26 25 25 25 26 18 20 23 25 27 27 30
27 26 25 26 26 25 23 23 22 19 20 20 19 17 16 15 16 16 18 20 23 24 23 21 26 25 19 29 32 28 28 24 20 21 20 23 25 29
29 26 25 24 25 26 26 25 23 20 20 19 19 18 16 15 16 17 19 19 19 22 23 19 24 23 24 27 32 31 30 24 20 19 19 24 26 24
29 28 25 24 26 28 29 26 27 21 21 21 21 19 16 16 17 19 21 19 19 16 16 16 18 19 19 24 29 31 29 26 14 18 21 27 27 17
27 28 26 26 27 29 30 30 27 23 23 23 22 20 17 16 17 19 22 19 20 18 13 12 15 19 23 22 23 23 21 20 18 19 22 27 18 10
26 26 27 27 27 29 28 26 27 25 25 25 23 22 19 17 16 17 19 18 19 20 20 17 15 15 15 17 17 13 19 15 14 17 18 24 16 9
29 27 28 26 28 28 27 30 28 23 25 25 24 23 20 16 15 15 16 17 18 18 18 19 19 17 9 5 8 12 16 16 16 11 13 20 21 20
35 29 29 28 29 29 27 27 31 22 22 23 24 24 20 17 15 13 14 16 16 15 14 14 14 15 16 15 9 10 12 17 9 12 12 14 18 19
33 32 30 29 29 27 25 25 24 23 21 22 24 22 20 18 15 12 13 15 16 14 14 11 10 11 13 15 14 9 9 13 12 12 12 11 13 13
31 25 27 26 26 23 22 24 23 21 20 21 20 21 21 19 15 12 13 13 15 13 13 12 10 8 9 7 9 8 8 8 10 12 13 10 9 11
24 22 23 22 20 20 22 23 21 20 21 22 20 21 21 19 15 13 13 12 13 11 12 11 9 7 6 7 8 5 5 7 9 10 11 10 10 7
25 22 17 17 18 20 20 21 19 19 19 19 20 19 19 19 18 15 14 11 11 10 11 10 7 7 5 6 7 6 5 6 6 7 6 7 9 8

GFSNE_850_spd_045.txt.gz
Wind_Speed
12 13 14 12 12 13 16 16 12 15 19 12 13 13 18 22 25 28 29 31 31 31 31 31 31 30 29 26 26 26 26 26 27 26 25 26 26 26
14 15 14 13 14 16 16 16 13 15 20 17 16 16 21 22 27 27 29 29 30 29 30 30 29 28 28 27 27 27 27 27 26 26 26 25 26 25
16 16 14 14 17 17 17 17 15 16 20 21 19 18 26 27 24 27 28 28 28 28 28 29 29 29 30 29 27 26 26 27 27 27 26 26 27 26
15 18 17 17 19 19 19 19 18 18 20 23 20 19 22 24 26 27 26 26 26 27 26 25 26 26 22 21 21 23 23 23 23 25 27 27 28 27
19 21 21 20 22 20 20 21 21 23 24 22 23 20 21 22 22 23 23 23 22 25 24 23 21 19 20 22 22 22 23 24 24 25 25 28 29 27
22 24 23 23 24 21 21 21 22 24 22 21 21 21 19 18 21 20 19 18 20 22 17 19 18 20 22 23 24 22 23 24 24 23 23 23 25 28
23 25 25 24 24 24 23 23 23 24 20 20 21 20 19 18 18 18 19 19 20 16 15 16 20 20 19 18 19 20 24 26 26 24 23 23 24 24
27 27 26 25 26 26 25 25 24 23 24 20 21 21 20 19 20 17 17 18 19 15 21 23 19 20 17 14 17 23 22 22 23 24 22 22 20 19
26 25 25 25 25 28 28 28 27 23 24 23 23 21 21 18 17 16 16 17 20 21 21 24 20 18 15 16 15 14 14 15 17 18 20 19 20 22
24 24 25 25 25 27 29 34 24 23 24 24 25 24 23 23 20 16 17 18 20 19 17 23 17 19 20 19 12 12 14 18 19 19 23 26 27 28
25 24 23 24 27 28 30 28 28 25 24 23 25 25 23 21 18 16 16 17 21 20 17 13 17 23 21 20 11 15 19 19 20 20 24 28 30 29
27 26 25 26 27 26 30 31 29 26 23 22 23 23 21 19 18 17 15 16 18 19 8 16 18 18 18 14 13 22 20 20 23 22 21 22 22 23
28 29 29 26 25 27 29 31 31 25 24 23 22 21 19 17 16 14 14 15 17 18 18 18 18 20 18 28 22 21 20 23 24 22 20 19 19 24
31 32 31 28 24 25 27 30 28 27 27 27 24 23 20 18 15 15 15 17 17 19 19 17 20 19 21 24 26 22 22 22 22 20 16 24 23 28
35 35 33 30 27 27 29 29 29 30 32 29 26 23 20 17 17 18 18 19 20 17 16 16 18 18 19 22 24 23 24 22 18 18 22 23 28 33
36 35 36 31 28 29 29 30 29 31 31 33 27 22 20 19 18 18 18 15 16 15 13 14 16 18 19 20 20 21 18 17 23 20 20 22 25 21
33 35 34 35 33 30 29 28 26 25 29 30 30 25 23 20 20 18 18 16 14 13 13 13 14 16 16 16 16 14 15 17 18 17 17 21 23 16
32 32 33 33 34 29 28 26 24 24 24 31 31 26 24 22 18 17 18 16 13 12 12 12 13 14 11 7 8 10 11 14 15 11 13 17 19 25
28 30 30 32 32 31 26 26 23 23 21 20 27 26 25 23 21 18 16 15 13 11 11 10 10 10 11 10 8 8 11 12 15 13 12 13 14 19
22 24 26 27 32 29 23 22 22 21 21 20 23 25 23 23 21 20 16 14 12 10 10 8 8 8 8 9 11 8 8 11 13 13 13 10 11 12
20 21 26 24 27 19 20 22 20 19 20 20 23 23 21 22 23 18 16 15 13 11 9 8 8 9 7 7 8 11 8 9 11 12 13 10 8 10
28 21 19 16 23 19 19 17 18 18 19 21 22 22 20 21 23 20 18 15 12 10 9 9 7 6 6 6 8 8 5 6 8 10 11 11 10 7
26 25 20 8 4 10 14 14 14 14 16 19 21 20 19 21 22 21 19 16 14 12 9 8 6 6 6 6 7 6 6 6 5 4 6 6 7 8

GFSNE_850_spd_048.txt.gz
Wind_Speed
12 14 13 13 12 12 12 12 13 16 16 14 15 15 17 17 20 22 22 23 30 30 30 30 31 30 29 29 27 26 26 26 26 26 26 28 27 27
17 11 14 14 14 14 13 14 14 17 22 17 18 19 19 20 20 23 22 28 27 30 31 29 28 30 30 31 30 29 28 27 26 26 27 27 27 27
19 14 16 16 16 16 15 16 18 18 23 22 20 21 21 21 21 21 22 23 23 26 30 28 29 30 31 31 29 27 24 22 22 23 23 25 27 26
14 16 18 17 19 19 19 19 19 20 22 25 24 23 22 22 22 22 21 21 22 23 28 27 29 29 28 26 24 24 23 22 22 23 23 23 23 25
18 18 20 20 21 23 22 22 21 22 22 24 26 23 23 22 23 22 21 21 20 23 26 27 28 27 26 26 26 26 25 23 23 24 24 24 24 24
22 22 23 24 25 25 24 26 23 23 23 24 25 24 23 22 21 22 22 20 21 21 22 22 25 26 28 27 26 24 22 22 25 27 27 26 23 22
20 22 23 26 28 28 27 26 24 23 23 25 25 24 24 23 21 21 23 21 20 20 19 18 21 22 21 21 21 19 20 23 27 27 26 26 24 22
21 22 23 27 29 30 31 32 32 29 27 27 27 24 25 23 21 21 21 20 22 17 17 23 20 22 22 19 20 23 21 18 17 18 19 21 22 22
22 22 23 22 26 27 27 29 33 35 35 31 28 25 25 22 22 21 20 20 22 21 20 23 20 22 19 19 22 25 19 14 15 19 21 22 21 23
22 23 24 24 23 25 24 26 27 27 28 28 29 25 23 21 20 19 19 20 20 20 18 24 20 20 20 22 23 21 19 21 20 22 22 22 24 28
24 25 26 25 24 28 28 29 29 30 30 29 32 27 28 28 27 22 19 18 21 19 17 19 16 22 22 21 13 14 19 22 26 22 23 23 24 25
28 28 29 30 29 30 31 32 32 31 26 27 24 25 26 26 25 24 18 19 19 20 13 17 20 20 24 17 13 22 19 19 22 22 25 23 20 20
29 29 28 29 33 30 31 34 36 30 27 30 25 21 18 18 18 18 17 18 19 21 17 17 19 19 20 25 21 20 19 18 20 21 21 20 15 20
34 33 33 33 35 36 32 34 34 31 29 30 28 23 21 19 18 18 19 20 19 21 19 18 20 19 21 25 24 20 18 17 19 19 19 21 21 22
35 35 39 40 39 35 39 36 32 32 31 33 30 29 24 20 17 17 18 20 20 20 19 17 17 17 18 22 24 21 19 18 15 16 20 20 21 26
34 33 36 36 38 39 32 32 33 32 32 32 33 29 23 20 18 18 18 17 17 17 16 16 15 15 18 19 19 20 16 17 20 21 20 19 22 25
37 38 33 33 34 32 32 29 33 31 29 28 27 30 27 21 21 17 18 16 17 15 14 13 13 15 17 18 18 15 15 15 17 20 17 18 19 23
26 24 28 31 30 30 30 30 31 28 24 23 24 26 29 25 21 17 17 17 16 14 14 13 12 13 13 12 12 11 12 12 15 15 15 16 16 19
21 21 23 25 27 25 27 27 28 27 25 22 24 24 26 26 23 18 17 17 15 14 13 12 10 10 12 11 9 11 11 11 13 14 13 12 12 16
21 23 23 24 26 28 27 28 27 21 20 21 21 22 24 25 23 20 19 18 15 13 12 11 10 10 10 10 11 7 10 13 12 13 14 11 10 11
21 22 23 24 25 25 22 23 18 17 16 17 20 19 20 25 22 19 18 17 16 13 12 10 9 14 11 8 11 11 10 11 11 12 13 11 9 8
21 22 23 24 24 24 17 9 15 15 15 16 19 18 21 24 20 18 19 18 16 14 12 10 9 7 7 8 10 11 9 10 10 11 11 10 9 7
21 22 23 24 24 22 22 10 4 12 13 15 17 18 21 22 20 18 20 19 16 12 11 9 7 7 7 7 9 9 9 9 8 7 9 8 7 8

GFSNE_850_spd_051.txt.gz
Wind_Speed
25 19 15 19 15 14 15 15 16 18 19 16 17 16 16 18 19 19 22 25 29 35 32 30 29 27 28 29 30 30 28 28 27 28 28 30 30 30
22 14 18 14 13 16 17 17 17 19 23 19 19 18 20 19 22 27 24 28 29 29 33 33 33 31 30 29 30 30 29 27 27 26 26 26 27 29
16 16 20 14 17 19 20 21 20 20 23 24 22 21 21 21 23 24 22 24 27 27 29 33 35 33 31 29 28 28 27 24 22 23 23 24 25 25
19 19 18 16 20 21 24 24 24 23 23 28 26 25 24 23 25 25 25 25 26 27 29 33 32 31 29 26 25 25 25 24 23 22 22 23 23 24
22 19 18 21 23 24 23 26 25 25 26 27 29 26 26 25 25 26 25 24 26 25 26 27 28 30 30 28 27 27 24 21 21 22 23 24 25 25
25 25 24 24 22 24 25 27 29 29 29 31 31 28 28 27 25 26 26 26 23 24 25 25 25 25 25 26 27 27 25 21 20 20 24 28 28 26
26 23 22 18 21 27 29 31 31 31 31 29 27 29 29 28 25 25 25 25 26 24 25 22 22 22 22 21 22 22 17 22 28 28 24 22 21 22
20 16 17 22 25 27 30 32 35 41 41 34 33 32 33 29 28 27 24 23 27 22 22 24 22 23 21 20 21 26 28 29 28 25 20 20 22 22
17 19 21 22 25 26 29 32 34 33 36 42 40 39 35 31 28 26 22 24 25 24 22 27 23 24 22 20 21 26 30 29 29 25 23 23 24 25
20 21 23 26 28 30 31 32 31 31 31 30 34 35 30 30 27 23 21 21 23 23 20 26 23 24 22 22 23 24 23 21 22 24 27 29 28 28
21 23 25 29 31 32 34 36 36 36 33 32 35 36 38 33 31 26 24 21 26 23 19 22 22 21 22 26 20 19 22 26 25 24 25 25 27 29
23 24 27 31 34 34 37 40 40 38 33 31 32 35 32 36 39 36 33 25 23 24 19 19 18 19 26 22 12 24 22 24 24 21 20 22 22 25
35 35 33 31 33 35 36 35 39 40 38 36 34 31 32 26 23 24 23 19 20 23 18 18 17 20 20 26 24 23 23 22 22 20 19 20 20 22
34 36 38 39 41 42 43 45 44 40 40 39 37 36 32 28 29 24 23 21 19 21 19 19 22 20 22 25 25 24 22 21 20 22 19 20 20 18
32 35 37 39 40 39 36 35 34 36 39 39 38 35 31 31 28 28 25 21 22 22 20 20 22 21 20 23 25 23 23 20 17 14 21 21 16 21
32 35 36 34 32 30 31 33 32 33 34 34 36 34 29 25 30 32 25 22 21 23 21 18 20 19 20 18 20 24 20 18 19 19 19 17 18 16
31 30 28 28 29 29 29 32 31 30 31 31 37 31 27 25 27 27 25 22 20 19 17 15 16 16 17 19 22 18 16 16 16 17 16 18 17 15
24 23 27 27 28 30 31 34 27 29 29 28 30 24 25 23 24 27 28 22 18 18 17 15 13 14 16 17 17 16 12 15 15 14 14 16 14 13
17 20 23 26 28 28 28 30 35 33 25 27 26 22 22 22 22 28 26 23 19 17 16 14 13 12 14 15 12 10 11 12 13 13 14 15 13 14
17 20 22 25 26 28 28 29 32 32 27 27 22 21 20 22 24 27 27 24 19 16 15 14 13 13 14 14 14 13 8 10 10 13 14 13 8 10
18 20 21 24 26 27 27 28 28 25 12 12 16 17 18 20 23 25 26 24 19 16 15 14 12 15 18 18 12 12 11 10 9 12 14 13 10 8
19 20 21 23 25 25 26 27 27 25 22 14 13 15 16 18 21 24 25 21 20 20 15 12 10 10 8 9 12 13 10 11 14 12 11 12 12 7
20 21 23 24 24 24 24 25 25 23 19 11 4 12 15 19 21 24 22 19 20 18 16 13 10 9 9 9 11 10 10 11 9 10 13 10 11 10

GFSNE_850_spd_054.txt.gz
Wind_Speed
29 26 25 20 15 17 22 21 20 24 25 23 22 17 19 20 21 22 26 28 30 33 35 33 34 35 33 33 31 30 31 30 28 27 27 28 29 29
29 27 21 20 21 17 15 20 25 27 28 22 19 19 19 22 25 25 27 30 32 33 31 31 32 34 36 35 33 31 30 29 28 26 25 25 26 26
24 17 17 20 19 18 20 23 23 25 27 26 23 25 25 25 23 24 28 30 33 28 28 34 33 35 33 31 31 29 26 25 25 23 23 23 24 24
18 17 20 21 19 20 23 24 26 27 28 32 30 30 33 27 28 29 29 31 33 33 31 30 30 27 27 30 33 27 25 24 22 22 23 23 23 23
18 22 19 18 17 21 26 29 28 29 31 32 36 37 36 29 30 31 29 30 28 28 26 23 21 25 31 32 28 27 27 25 23 24 20 20 21 22
19 19 21 21 23 28 28 25 27 30 29 32 37 39 33 32 32 29 29 29 30 27 25 27 31 27 27 24 24 28 29 27 23 25 27 29 29 25
18 21 22 21 18 18 21 26 28 31 36 37 35 34 34 31 29 27 23 23 26 22 26 26 28 24 25 29 26 27 28 28 27 27 30 31 30 22
20 15 12 15 17 20 24 27 29 34 37 38 41 41 38 34 30 29 28 29 30 32 24 29 27 28 30 27 23 24 27 28 30 29 30 31 29 24
12 14 17 20 20 25 28 32 35 36 36 39 42 41 41 41 41 31 30 31 33 23 24 27 29 33 23 23 24 27 29 29 29 26 24 24 26 28
14 16 19 21 22 24 29 33 37 37 37 38 40 39 37 35 36 36 31 30 28 31 30 32 28 26 24 25 26 26 25 24 26 27 26 25 26 27
20 22 24 27 29 32 36 40 43 44 42 40 40 42 39 37 34 31 30 30 34 35 32 27 26 25 23 22 24 27 21 25 25 26 27 27 24 23
25 27 28 30 33 34 37 41 46 47 43 42 41 38 38 38 38 36 34 33 39 36 33 24 23 24 24 27 20 15 23 24 25 23 23 21 19 21
28 30 31 31 33 34 35 38 42 44 48 50 48 45 35 35 36 36 33 30 36 37 27 21 22 22 20 26 29 27 23 24 22 22 22 20 17 19
29 30 31 32 34 34 32 29 29 29 33 37 35 39 41 39 30 26 33 33 27 25 17 14 20 21 23 27 32 26 25 20 22 20 17 18 20 17
27 29 30 31 30 30 31 31 30 31 31 32 32 32 32 33 32 31 27 25 26 25 21 19 23 25 25 27 28 29 23 23 16 13 19 17 18 16
27 28 28 26 27 31 30 31 31 31 32 30 34 33 30 31 31 28 26 26 30 28 23 27 29 27 22 22 20 20 17 19 17 17 20 17 16 15
27 26 24 24 30 32 32 30 31 29 33 33 30 33 29 30 34 23 20 26 29 26 25 23 18 16 19 16 19 19 21 20 16 19 19 15 12 14
22 21 22 26 28 30 31 32 31 32 31 33 31 31 26 23 19 16 18 24 27 25 23 20 17 15 15 16 18 21 17 14 17 16 11 16 14 8
18 18 21 25 28 29 29 30 32 33 32 32 32 26 24 23 17 18 20 21 27 26 22 15 16 16 17 18 14 16 15 15 14 11 12 13 15 9
16 19 22 24 25 27 29 29 32 32 33 32 31 19 22 20 17 19 19 23 26 24 23 16 19 17 17 17 18 19 19 19 12 10 12 13 9 8
17 21 23 24 26 27 29 29 29 31 32 30 30 19 14 15 16 16 18 23 24 23 23 16 16 17 17 18 20 20 7 12 10 9 12 12 12 6
20 22 23 25 26 28 28 28 29 29 29 28 27 22 8 13 13 15 16 19 25 23 21 15 14 15 16 16 11 9 11 10 11 12 10 10 10 9
24 20 24 26 25 26 27 27 26 28 27 27 26 25 17 9 7 14 17 21 23 21 19 19 16 13 11 10 11 12 9 8 11 12 11 9 9 8

GFSNE_850_spd_057.txt.gz
Wind_Speed
36 32 33 29 26 23 22 27 28 26 31 24 25 25 25 23 24 25 27 28 28 28 29 31 31 32 32 31 30 28 27 27 27 25 25 25 25 25
33 34 29 25 22 20 24 25 26 27 32 29 29 28 24 24 22 22 25 29 30 31 32 33 33 33 30 29 25 27 28 29 25 24 23 23 23 24
32 27 23 18 16 21 23 21 22 25 31 33 30 30 30 30 32 31 34 30 32 33 34 35 34 30 27 28 26 27 29 26 23 22 23 21 22 23
23 20 16 15 19 20 21 22 24 25 30 35 35 36 36 34 34 35 35 35 34 34 36 33 31 28 26 28 27 29 26 25 25 24 24 24 21 20
14 13 13 15 18 19 18 21 26 29 32 35 38 36 36 34 37 39 38 37 38 35 33 30 29 27 28 28 29 25 25 26 27 24 26 25 26 25
10 11 13 16 21 20 19 23 26 27 27 30 34 37 34 33 34 38 39 37 38 35 31 27 29 29 30 30 29 26 27 30 27 25 26 25 26 29
10 13 16 17 12 13 17 19 21 24 27 32 36 39 42 41 39 38 41 37 34 29 30 27 27 31 31 30 29 29 29 24 24 28 28 28 27 28
11 12 9 10 13 15 18 20 23 27 31 35 39 40 44 43 41 41 39 37 35 34 32 30 28 32 31 30 29 31 21 23 29 31 31 26 23 25
8 7 9 11 16 21 24 26 27 28 29 32 37 39 41 41 40 42 40 38 37 34 28 32 29 30 29 30 27 19 22 26 26 26 24 25 26 24
9 13 16 19 22 27 30 34 36 37 40 42 42 44 41 38 39 42 41 37 33 31 32 30 31 31 28 28 20 20 24 25 24 21 24 24 24 25
13 15 18 20 24 26 30 34 37 39 38 39 42 43 44 44 37 38 40 38 36 34 33 31 33 31 28 23 21 22 24 25 18 21 23 22 22 22
15 17 19 21 23 25 27 31 35 35 35 37 37 37 36 37 42 40 37 40 36 33 34 31 31 21 22 22 23 18 20 23 24 22 22 20 20 21
18 20 22 23 24 24 23 24 26 30 32 31 33 34 34 36 30 32 32 39 32 32 30 21 22 18 20 22 23 24 24 28 21 20 18 17 17 17
21 23 23 22 22 22 23 24 26 28 29 31 34 32 32 34 30 31 27 26 29 28 26 19 19 19 20 21 25 26 26 22 15 15 10 12 15 15
21 21 21 21 21 22 24 26 26 27 28 28 31 36 33 31 30 30 27 26 28 24 18 19 21 18 21 25 25 27 20 14 4 6 13 13 16 18
19 19 20 20 22 23 25 26 26 26 28 30 30 32 32 30 29 29 27 29 28 24 21 21 22 20 21 22 23 19 13 14 14 13 16 18 18 14
19 20 20 22 24 25 26 28 28 29 30 30 31 32 33 28 29 24 30 29 31 23 18 20 21 20 19 18 18 15 13 15 15 15 17 22 13 12
18 18 19 21 23 26 28 30 31 31 31 30 31 31 34 29 23 21 19 13 13 16 15 18 19 18 15 17 16 15 14 13 13 14 19 15 14 8
15 17 19 22 25 26 27 30 32 32 31 31 31 30 33 29 17 19 24 12 14 13 14 18 18 15 17 21 15 14 14 13 15 17 13 11 14 10
16 18 20 23 25 26 28 30 31 31 31 31 30 29 29 32 16 24 21 15 13 13 14 18 19 17 19 18 15 14 14 17 14 10 13 8 9 7
19 20 22 23 24 25 28 29 29 29 30 30 28 28 27 29 17 10 11 11 12 14 18 20 19 13 16 17 18 17 16 9 8 8 9 11 9 8
20 22 24 24 24 26 28 29 29 30 28 28 27 26 25 24 21 11 8 12 12 15 19 18 16 14 14 14 14 14 8 8 11 11 9 8 9 8
22 25 25 25 26 26 26 27 29 29 27 27 26 25 23 21 20 14 8 8 14 16 17 22 17 15 13 11 9 8 7 8 8 9 11 9 10 8

GFSNE_850_spd_060.txt.gz
Wind_Speed
30 30 31 31 32 28 27 27 25 25 25 31 28 22 21 25 28 29 28 27 28 29 30 31 30 30 32 29 27 28 26 24 26 28 27 23 21 22
27 28 28 30 27 25 23 21 22 26 30 27 27 24 24 28 28 29 29 27 28 30 33 35 34 34 34 30 27 28 29 26 27 27 23 21 20 20
29 29 26 25 22 19 18 20 25 26 29 29 29 29 29 28 31 32 33 36 37 40 37 39 39 38 35 32 27 28 29 28 28 28 24 22 22 20
24 24 23 19 18 17 18 21 22 21 27 30 32 34 33 32 34 35 36 40 41 41 43 41 42 35 37 33 29 30 28 29 28 29 26 27 26 24
19 18 18 16 15 16 16 18 20 20 25 32 36 37 35 30 31 33 34 35 38 39 42 41 42 41 35 35 32 32 28 29 30 27 27 27 25 25
18 16 13 13 12 14 18 19 18 19 21 25 29 33 34 34 34 37 40 39 40 37 39 41 41 41 36 34 33 31 31 30 28 27 28 25 26 28
14 12 11 12 16 15 13 13 17 20 24 28 33 36 38 37 37 38 38 39 41 39 40 39 35 37 35 35 33 35 29 28 28 28 24 26 28 27
12 13 14 17 16 17 17 18 21 24 27 29 32 34 37 38 42 44 43 41 43 41 33 35 36 40 33 26 30 31 27 29 25 22 25 27 26 22
15 16 16 16 17 18 19 22 24 26 29 33 37 40 42 42 41 43 40 39 44 42 36 37 32 31 28 28 31 27 27 22 21 23 26 25 23 24
15 14 14 16 19 23 26 28 29 29 30 32 34 37 38 38 36 40 41 46 46 42 38 39 36 33 26 25 28 27 23 20 21 25 26 22 23 23
13 14 17 19 21 23 25 26 28 28 27 28 29 30 31 30 26 28 33 29 34 39 37 34 37 31 28 27 27 28 19 19 22 23 22 28 26 23
13 15 16 16 18 21 24 25 27 28 30 31 32 32 32 31 26 23 24 26 28 33 35 31 37 30 25 28 22 18 17 17 19 22 24 22 22 21
13 13 14 16 18 20 22 23 25 28 29 31 33 34 34 34 30 29 26 25 31 29 28 31 33 26 23 14 13 14 14 15 19 23 20 17 17 15
13 14 15 17 18 20 21 22 24 26 28 29 30 32 33 33 31 30 29 27 25 29 25 30 27 17 17 16 17 16 15 17 17 16 11 10 12 13
15 16 16 16 18 18 19 21 22 23 25 27 28 30 31 32 33 33 29 27 24 26 22 26 25 17 17 17 17 16 17 14 12 4 11 11 11 14
15 15 16 17 16 18 19 20 20 22 23 25 27 29 31 31 33 33 29 26 22 25 19 24 20 18 18 19 17 15 12 12 10 12 14 12 13 14
15 15 15 16 17 19 20 21 22 23 25 26 27 28 30 30 32 34 26 19 22 29 25 17 15 17 21 19 17 13 11 12 10 11 12 14 16 12
15 16 17 19 20 21 22 24 25 26 26 27 27 27 29 29 31 33 21 17 24 15 22 16 14 19 20 18 16 14 12 11 9 10 11 16 14 5
16 17 18 20 21 22 24 25 27 27 27 27 27 27 27 27 27 29 22 16 25 14 11 11 13 19 20 20 16 12 12 11 10 13 14 12 12 7
18 18 19 20 22 23 24 26 28 28 27 27 26 26 24 26 25 26 23 17 17 11 11 11 12 17 18 17 13 11 11 11 11 12 8 8 7 7
18 19 20 22 23 24 25 26 27 27 27 28 26 25 23 25 22 22 24 15 11 12 11 11 9 12 13 13 16 13 10 12 12 11 9 9 10 8
20 21 22 23 25 25 25 25 27 27 27 26 25 24 22 22 22 21 21 19 8 9 12 9 10 11 17 14 13 11 10 10 8 8 9 9 9 7
22 23 24 25 25 25 25 25 26 26 24 25 26 24 22 22 21 21 20 18 11 6 7 13 13 15 15 13 11 8 7 7 6 7 7 8 10 11

GFSNE_850_spd_063.txt.gz
Wind_Speed
31 30 35 32 25 27 26 27 28 26 23 25 25 26 31 28 20 21 25 28 30 30 30 33 33 33 34 35 35 34 34 32 29 27 28 28 28 24
27 28 30 25 25 23 24 27 26 25 25 23 27 30 29 24 24 26 27 28 29 28 29 32 34 36 38 39 41 39 35 31 30 28 27 28 24 22
24 26 27 27 23 24 25 24 22 21 24 29 31 28 25 26 28 29 31 32 32 30 32 35 39 42 42 42 45 44 36 35 32 30 28 27 24 25
27 26 25 22 23 23 20 19 18 20 23 26 25 26 27 28 30 32 32 31 33 33 32 35 38 39 40 42 44 48 42 36 35 32 29 29 30 27
25 21 21 22 20 19 18 19 21 21 23 23 25 27 29 27 29 31 33 35 35 35 37 40 40 41 41 41 42 43 53 39 36 32 30 32 31 31
21 19 20 20 18 18 18 21 21 25 18 20 24 27 29 30 32 35 39 39 41 40 42 42 41 42 42 42 40 40 52 42 39 33 31 30 30 31
22 22 20 18 19 20 22 23 24 21 22 24 26 29 32 35 36 37 41 46 49 47 49 51 46 46 41 38 38 39 37 36 29 31 28 30 29 25
21 20 21 20 18 20 23 20 20 21 23 26 29 32 35 37 39 40 41 44 49 43 36 43 40 40 39 35 37 40 27 26 25 26 29 29 25 26
21 21 19 19 21 20 19 19 20 23 26 30 33 34 35 33 35 37 36 37 40 40 34 45 39 42 36 36 35 25 24 25 25 28 29 26 26 27
18 17 19 18 18 19 20 22 23 25 27 28 29 29 29 30 31 32 33 38 41 40 33 34 35 39 37 33 34 25 23 25 27 27 25 25 26 27
18 18 17 17 19 20 23 23 24 25 25 25 25 25 26 26 26 29 32 33 37 42 34 32 33 34 35 36 30 24 26 27 28 21 23 25 24 27
15 15 16 18 19 21 22 23 24 24 24 24 24 24 25 25 25 24 26 29 32 38 32 29 36 29 30 32 29 25 31 24 15 21 22 23 26 26
14 16 17 18 19 21 22 21 22 22 23 24 25 26 26 26 25 25 24 26 32 37 33 31 36 33 34 29 18 22 13 14 14 17 20 23 21 18
15 16 16 18 19 20 19 19 20 22 23 24 26 26 28 28 28 29 28 28 30 32 29 26 30 29 28 24 13 13 12 11 14 16 18 16 14 15
15 15 17 18 17 16 17 19 21 22 23 25 27 28 29 30 30 31 31 32 33 26 25 25 22 27 30 19 15 13 10 12 14 14 8 11 13 14
15 15 15 16 17 18 19 19 20 21 23 25 27 28 29 29 30 30 32 34 33 22 16 19 20 19 22 18 14 13 12 10 7 9 12 14 14 13
15 16 16 17 18 18 19 19 20 21 23 24 26 27 28 29 29 28 28 31 28 25 19 24 14 19 18 19 17 17 14 12 10 11 14 13 12 13
15 15 16 17 18 18 19 20 21 22 24 25 25 26 28 29 29 28 26 27 28 23 18 20 14 14 16 19 17 15 14 12 10 12 12 12 11 5
13 14 16 16 17 18 19 21 23 24 24 25 26 26 27 28 27 28 27 26 27 22 17 17 10 12 16 19 14 14 14 12 10 11 10 13 11 5
15 15 16 17 18 20 22 23 24 24 24 25 26 26 25 26 27 26 24 24 25 23 13 14 16 16 16 15 16 13 13 12 11 10 11 9 9 7
15 15 17 20 21 22 23 24 24 24 24 25 26 25 24 25 25 24 24 21 22 20 11 12 14 12 12 13 15 14 12 11 11 12 10 10 9 10
17 19 19 21 22 24 24 24 25 24 24 25 24 24 23 22 24 22 22 23 21 19 14 10 10 12 13 15 17 11 10 10 10 9 10 11 10 7
18 19 21 23 24 25 26 26 25 24 23 23 23 22 22 22 22 22 21 20 20 18 15 6 7 11 12 14 14 11 11 9 10 9 8 8 10 10

GFSNE_850_spd_066.txt.gz
Wind_Speed
29 28 27 30 31 31 31 25 26 22 21 21 19 19 20 21 26 31 26 21 21 22 25 27 27 30 33 35 37 38 38 37 37 33 30 28 26 24
33 34 38 34 29 26 30 23 22 21 22 19 17 20 22 26 26 28 22 23 25 26 28 28 28 30 32 35 38 42 45 47 39 35 31 31 27 25
41 34 34 26 27 26 26 24 23 23 24 22 24 23 25 26 24 22 24 27 27 27 27 28 30 31 32 36 39 41 42 39 42 42 40 33 29 26
34 34 28 25 29 28 25 23 24 22 22 23 23 24 28 22 22 26 26 27 28 28 29 31 33 35 38 39 40 39 39 41 42 44 49 44 35 28
24 27 27 29 26 25 22 23 22 20 21 21 22 27 25 23 24 25 26 27 29 31 34 36 38 41 43 45 46 46 43 40 38 38 48 49 40 35
23 26 28 24 21 22 22 22 22 22 21 23 25 21 21 22 25 29 33 33 37 37 38 39 40 41 42 45 46 46 44 41 41 39 40 50 45 32
26 25 23 22 22 24 23 22 20 19 23 19 18 19 22 25 28 32 37 39 40 39 39 39 42 43 42 41 39 38 36 35 37 37 41 37 27 23
27 26 23 24 24 23 19 19 20 19 17 18 20 23 25 27 29 32 34 36 41 41 40 44 40 40 38 37 34 31 31 31 35 32 23 23 22 23
24 23 23 22 21 19 18 19 17 17 18 20 22 23 25 26 30 31 31 34 37 40 40 48 42 42 38 37 32 27 28 29 38 25 23 23 22 25
21 21 20 19 17 17 17 16 17 18 20 20 21 22 24 24 25 27 30 33 37 37 34 43 41 42 36 35 36 29 27 28 33 24 25 23 24 25
21 20 19 18 19 16 16 17 18 18 18 20 21 21 21 21 22 25 26 30 38 39 38 33 34 36 38 36 35 23 22 26 25 22 22 24 24 23
19 19 19 17 16 16 17 16 17 18 19 19 19 19 20 20 20 22 25 28 31 40 21 31 41 33 32 34 31 32 26 24 16 21 26 21 20 23
17 16 15 14 15 16 16 17 19 20 20 21 21 21 21 22 22 22 23 25 29 34 35 33 41 36 27 33 36 33 25 20 25 21 15 19 20 23
14 13 12 13 15 16 17 18 19 19 20 20 21 22 24 24 24 25 25 25 27 31 32 30 34 31 29 28 32 27 15 9 11 12 17 19 19 20
12 11 12 14 15 16 16 18 18 19 20 22 23 23 24 25 26 26 26 27 30 29 28 22 24 27 24 25 31 24 12 12 14 16 16 16 12 11
12 12 12 13 13 14 16 17 19 21 22 23 24 24 25 26 26 27 28 28 31 31 27 19 17 20 24 26 28 21 12 13 13 14 13 13 13 14
10 10 11 13 15 16 19 21 20 20 21 22 23 25 26 27 27 27 27 27 28 30 30 22 15 14 15 20 20 20 15 17 13 12 13 14 13 13
14 13 13 14 17 20 19 19 19 20 22 23 25 26 27 28 29 28 27 26 27 27 28 25 18 15 17 18 18 20 19 15 13 13 13 14 14 11
17 18 16 16 16 17 17 19 21 23 24 25 25 25 26 27 28 28 27 27 27 26 25 24 17 13 21 19 14 18 16 14 13 14 13 13 14 10
13 13 14 15 17 19 21 22 22 24 24 25 25 24 24 26 27 27 26 26 26 26 25 22 14 11 22 18 17 16 12 12 15 14 12 12 12 9
12 13 15 16 18 20 21 22 24 24 24 24 23 23 22 23 24 24 25 24 24 25 26 23 17 11 12 15 14 13 12 12 14 13 13 12 11 10
12 13 15 16 18 20 22 24 25 25 24 23 22 22 21 21 23 24 23 23 22 23 24 22 18 12 12 17 17 14 12 13 13 13 13 11 10 7
13 14 16 18 21 23 25 26 27 26 23 22 22 22 21 21 20 22 23 21 22 22 21 21 18 11 11 17 16 15 13 13 12 12 10 9 10 10

GFSNE_850_spd_069.txt.gz
Wind_Speed
31 28 31 28 25 25 26 26 24 23 23 22 19 17 17 18 21 22 23 24 23 22 22 24 26 27 30 32 33 36 38 39 41 41 41 39 36 38
34 30 26 28 29 30 31 26 23 29 25 18 17 17 18 19 24 27 25 23 23 23 24 26 28 30 32 33 34 36 38 41 45 49 48 46 50 45
39 33 32 37 36 34 29 27 27 24 24 22 20 19 20 22 24 25 27 25 25 26 26 27 28 29 30 32 35 36 39 41 42 44 45 45 45 42
31 28 30 34 32 32 30 27 27 25 24 23 21 21 22 23 25 23 20 22 23 23 25 27 29 31 33 36 38 41 44 45 45 45 44 44 42 41
31 31 28 27 28 25 25 28 24 21 22 24 22 21 22 25 20 17 18 21 22 24 27 29 29 30 31 33 35 38 42 45 46 47 47 43 40 41
29 22 23 27 26 24 26 22 23 25 24 22 20 21 23 16 17 19 22 24 25 24 27 27 27 29 31 34 37 39 40 39 41 41 39 37 36 38
26 24 26 26 27 25 24 24 24 25 23 20 20 21 17 16 18 21 24 25 25 24 25 27 32 33 34 35 36 37 37 37 38 36 34 34 34 34
30 27 29 29 29 26 23 24 23 21 21 20 19 17 18 20 21 21 23 22 17 25 29 32 33 35 36 36 37 36 33 32 33 31 27 27 27 32
31 31 31 29 24 22 23 21 20 19 18 16 16 18 19 20 21 22 22 23 23 26 31 34 33 35 31 33 37 34 30 30 30 27 22 24 21 20
29 29 27 25 22 21 20 19 17 16 15 16 17 18 18 19 20 21 23 25 27 27 28 32 30 34 34 35 39 31 24 21 24 23 24 26 26 20
25 24 23 21 19 17 15 14 14 15 15 16 17 17 17 19 18 20 21 25 27 26 29 23 25 32 40 36 24 21 25 25 21 15 18 20 15 17
27 23 21 18 15 13 13 13 13 14 14 15 15 15 16 15 18 20 23 25 25 25 14 25 28 21 23 32 19 23 23 23 24 14 12 16 16 15
19 19 17 15 12 12 13 13 13 14 13 14 14 15 15 17 18 20 22 24 26 27 27 27 33 30 21 28 29 22 23 24 17 8 14 16 19 15
15 14 11 11 11 12 12 12 12 12 12 13 15 16 18 20 20 21 23 25 27 29 28 26 32 30 28 29 28 24 18 21 12 13 13 12 12 14
11 9 9 9 10 9 10 10 11 12 13 16 19 19 19 19 21 23 25 26 28 28 26 23 25 27 25 28 28 23 19 15 12 10 11 11 12 15
8 7 6 6 8 9 11 13 14 16 19 19 18 18 19 21 24 25 26 27 29 30 26 23 21 23 27 27 25 25 20 15 13 15 12 16 16 12
5 4 6 9 12 14 15 15 18 18 17 17 18 21 24 24 24 25 25 26 28 30 30 25 22 23 24 24 22 21 20 16 15 13 15 13 13 13
7 9 12 13 13 15 17 16 16 17 18 20 23 23 24 24 24 25 25 24 27 28 29 27 24 24 18 17 20 25 20 18 17 15 13 13 12 12
10 12 13 13 14 14 14 16 18 20 22 22 23 23 23 24 25 24 23 23 24 25 24 24 21 17 18 19 16 16 21 21 18 16 14 14 12 10
8 9 9 10 11 13 15 17 19 20 21 22 23 23 24 24 23 22 21 22 23 25 25 21 17 15 15 18 16 11 16 19 18 15 14 14 13 12
8 8 9 11 13 15 17 19 20 21 23 24 24 24 23 22 22 22 21 22 24 21 22 21 19 20 20 17 19 16 15 18 17 14 14 13 11 9
7 8 10 12 14 17 19 21 21 20 22 22 22 23 21 20 20 20 19 20 19 20 22 23 21 19 18 16 18 16 14 14 15 17 17 15 10 7
8 10 12 15 18 20 22 22 24 25 25 25 23 21 20 20 19 18 17 18 19 20 20 21 19 18 18 16 17 16 17 17 17 16 15 13 12 12

GFSNE_850_spd_072.txt.gz
Wind_Speed
35 33 27 26 26 30 28 28 27 23 27 20 23 23 24 23 26 22 22 25 26 28 30 32 32 30 30 31 33 34 36 39 40 42 43 45 44 44
32 31 31 32 34 33 34 34 33 34 24 20 22 24 22 26 24 24 24 26 29 29 29 29 27 28 29 31 33 35 37 39 41 43 45 47 48 46
35 40 41 39 41 38 35 35 40 35 32 24 24 24 24 23 25 24 26 28 24 27 26 25 26 26 27 29 32 34 37 39 41 44 46 49 51 51
36 42 40 30 31 35 30 42 45 35 31 30 29 26 23 23 26 27 25 23 20 20 23 22 24 26 29 30 32 33 35 37 40 43 46 50 52 55
37 38 38 37 37 39 40 42 36 31 30 29 24 23 23 27 24 23 23 18 17 21 23 24 25 26 25 26 26 29 32 35 38 41 43 45 47 47
49 50 48 40 42 50 43 35 30 32 29 26 23 24 23 22 20 16 13 14 15 19 23 22 23 22 23 26 26 29 32 35 38 40 42 42 43 42
38 38 38 39 36 32 33 32 32 32 32 25 25 23 21 19 16 11 13 14 16 19 20 18 20 23 26 26 30 32 34 35 36 38 40 41 40 36
33 35 35 37 34 32 32 32 34 34 29 26 23 20 17 14 13 13 12 12 13 12 18 19 22 24 23 24 29 32 34 36 37 36 36 37 35 29
34 39 35 37 38 36 36 32 29 28 24 22 20 18 16 15 15 15 14 13 14 15 18 20 19 21 20 23 30 33 35 32 30 28 30 32 29 24
38 35 35 37 37 36 32 31 26 23 21 19 17 17 17 18 17 17 16 17 17 17 16 20 16 21 22 23 31 29 29 27 26 25 27 28 24 27
33 34 34 35 33 28 24 20 19 17 15 14 16 17 16 17 18 17 15 12 16 15 16 20 16 22 25 27 16 20 25 24 25 31 28 24 22 22
31 30 27 27 25 22 20 18 16 14 13 15 15 15 15 16 16 17 16 15 14 14 8 17 17 19 18 17 16 23 17 19 25 25 20 18 15 13
32 31 27 24 21 18 13 12 11 9 11 13 13 13 14 15 16 17 17 19 18 19 19 25 24 22 19 28 25 23 21 17 20 19 14 10 9 9
26 23 21 18 13 8 8 9 7 9 11 12 12 13 14 16 18 20 21 21 21 26 27 27 29 23 23 27 30 23 19 19 18 16 12 15 14 12
17 16 11 7 8 10 7 6 7 9 11 12 13 17 21 22 21 21 22 25 26 28 28 26 25 24 22 27 30 27 26 20 16 16 11 9 7 8
12 9 9 9 6 4 6 10 11 13 15 18 18 18 19 18 20 22 26 25 25 24 21 20 22 23 25 24 25 30 24 24 14 13 15 15 13 12
13 11 9 9 9 9 10 12 14 14 14 15 14 15 16 19 20 20 22 21 20 20 19 17 18 20 23 26 30 29 28 23 22 18 16 16 15 15
10 7 7 8 8 8 8 11 11 11 11 13 14 16 16 16 16 16 18 17 19 20 20 19 19 20 21 23 23 30 26 26 23 20 19 17 14 14
4 5 6 6 7 6 6 7 8 13 15 12 12 13 14 15 17 17 17 18 19 20 20 20 19 19 22 26 22 22 27 24 23 22 20 18 15 13
3 3 3 4 4 4 5 5 6 8 10 11 12 13 15 16 17 17 18 19 20 21 22 20 18 18 20 23 28 26 16 20 19 22 18 16 14 14
4 3 2 0 1 3 7 8 10 10 13 14 14 15 16 16 18 18 19 19 20 20 22 21 20 23 24 23 26 28 24 21 21 20 18 15 14 11
4 2 2 2 4 6 8 10 11 13 14 15 16 17 17 16 17 18 18 19 19 20 22 22 21 20 20 22 25 28 25 19 20 24 18 15 10 9
2 3 4 7 8 9 10 12 13 14 14 15 15 15 15 15 16 16 17 18 19 20 20 22 21 19 20 21 24 26 27 22 18 21 21 19 17 15

GFSNE_850_spd_075.txt.gz
Wind_Speed
39 37 37 33 30 27 25 27 27 21 21 26 25 26 25 25 30 30 28 29 30 30 28 30 30 30 31 33 32 30 31 33 35 36 38 40 41 42
41 38 36 35 32 32 31 31 31 33 28 23 29 26 26 29 29 31 31 31 29 28 27 30 31 31 32 30 28 29 30 32 34 36 37 39 41 44
41 41 39 36 35 34 37 31 34 36 36 35 40 36 31 30 31 28 29 30 29 29 28 29 29 30 29 28 28 29 30 32 34 36 37 39 40 43
40 38 40 40 40 38 37 34 32 31 26 37 45 37 41 32 32 28 28 25 24 21 25 29 29 26 27 28 29 29 30 31 31 33 35 37 39 42
44 42 41 43 44 43 37 33 33 34 41 40 47 45 42 35 31 31 30 29 27 25 26 28 27 27 27 28 27 25 27 28 31 32 33 36 39 43
45 44 46 49 44 43 46 47 53 55 45 45 43 43 37 36 34 30 30 27 20 16 18 23 25 26 24 25 24 24 27 29 31 32 35 39 42 45
50 50 49 48 48 49 51 51 45 49 48 52 42 42 35 34 31 29 24 18 19 22 21 19 19 18 20 24 25 27 32 33 34 34 37 39 41 41
48 50 52 48 45 42 38 45 48 48 51 47 45 44 38 32 26 22 23 22 18 16 15 18 19 21 23 23 20 28 32 33 33 34 35 36 36 37
45 42 44 42 41 39 41 43 44 42 43 45 45 39 28 22 23 22 20 19 17 17 16 20 22 26 26 22 24 31 32 33 32 30 32 32 34 34
40 39 40 41 44 44 41 42 39 37 33 31 32 28 23 20 19 17 15 17 17 20 20 22 19 23 23 22 25 31 30 29 29 29 28 31 34 34
43 44 43 41 39 36 36 34 31 27 25 21 16 12 12 13 18 15 15 14 15 14 17 17 19 22 21 28 26 15 23 29 25 27 28 29 31 32
42 38 35 30 29 28 24 25 25 22 16 16 10 11 16 17 17 15 15 15 14 12 13 15 15 17 21 17 19 21 25 25 27 17 23 29 26 19
32 30 25 22 24 25 23 21 17 9 6 5 6 11 10 11 13 13 13 16 17 19 19 23 24 24 24 30 25 25 28 23 19 21 23 26 19 14
24 22 22 23 21 18 14 9 2 4 6 8 9 8 8 9 11 14 18 22 22 23 23 25 29 28 28 31 32 27 23 26 24 23 23 22 19 19
20 22 22 19 17 13 7 5 4 7 8 8 9 8 11 16 20 20 20 19 20 24 25 26 27 28 25 28 30 29 27 29 25 22 20 20 17 10
25 22 19 13 9 8 8 9 9 9 11 12 14 15 16 16 16 15 17 19 22 23 20 20 21 21 26 27 25 29 27 26 28 25 22 19 19 16
18 15 11 8 8 7 7 7 7 8 10 13 13 12 12 11 13 15 16 16 18 19 19 17 18 20 24 26 29 31 30 29 28 28 21 25 22 20
12 11 11 10 6 3 2 3 7 7 9 10 10 11 11 12 13 14 15 16 17 18 19 18 20 22 24 26 23 29 28 27 26 28 28 28 23 21
14 12 10 8 5 4 4 5 5 10 12 8 8 10 11 13 15 15 16 16 18 18 18 20 20 22 26 29 27 20 25 27 33 34 24 28 26 21
9 8 6 4 2 2 2 1 3 6 8 9 10 11 13 14 16 16 17 17 19 20 21 21 20 22 22 23 32 39 31 31 25 28 31 22 25 21
8 7 7 5 4 1 3 5 7 7 9 10 11 12 13 15 16 16 18 19 20 20 21 21 21 24 27 27 32 34 30 26 26 28 28 25 22 19
8 5 3 1 1 2 5 6 7 8 9 10 12 13 13 14 14 15 15 17 18 19 21 23 22 22 23 24 30 32 32 31 27 28 25 23 18 18
4 2 3 4 4 4 4 5 7 7 8 10 11 11 13 13 14 14 15 16 17 19 20 22 22 21 23 24 28 31 29 30 29 21 11 17 11 12

GFSNE_850_spd_078.txt.gz
Wind_Speed
39 35 37 37 36 34 32 30 29 29 31 33 33 30 29 24 23 28 30 32 34 32 30 30 31 31 31 31 31 32 33 35 33 31 32 33 35 37
46 45 40 39 38 40 39 37 35 36 38 33 28 33 29 28 30 28 30 33 33 32 30 30 30 30 30 32 33 33 34 31 30 31 32 33 35 36
50 48 46 45 42 45 43 40 40 38 43 42 38 37 37 33 34 28 35 36 35 35 33 30 31 32 33 33 32 33 31 30 31 32 33 35 35 35
52 51 54 52 52 47 45 45 44 44 45 43 41 41 35 34 39 37 37 41 37 35 33 32 33 30 32 31 31 30 30 30 32 33 32 32 33 35
49 46 46 47 47 46 46 47 47 48 46 44 40 41 41 46 48 47 44 39 37 36 30 29 30 30 31 32 30 29 30 30 29 30 32 32 33 35
54 49 49 47 44 44 45 47 48 48 42 49 51 49 48 44 43 42 43 42 41 36 30 28 25 26 27 27 28 28 27 26 28 30 32 33 34 35
53 51 49 50 52 47 49 47 49 46 47 49 51 50 47 42 44 41 43 43 37 26 22 21 24 25 26 26 25 23 24 27 31 34 35 34 35 35
47 48 49 51 52 54 52 52 52 50 59 51 53 51 49 49 45 43 43 34 25 23 22 25 27 24 24 26 25 23 25 29 32 35 36 35 32 33
50 52 54 54 52 52 52 52 55 55 52 53 45 40 39 38 38 33 26 24 20 14 12 21 24 27 26 27 25 21 27 32 34 36 35 30 32 30
51 52 52 53 51 46 45 47 50 46 39 44 39 35 30 28 25 21 20 21 19 14 19 30 28 28 25 26 26 28 29 33 37 32 30 32 31 29
51 47 44 43 43 43 45 41 37 32 28 26 19 19 20 19 17 15 12 5 16 18 18 23 25 26 27 30 30 26 27 27 28 30 34 31 26 26
44 46 44 47 48 46 38 31 27 22 20 19 19 18 14 10 5 2 9 13 16 17 17 20 22 23 30 27 22 21 22 29 36 33 28 24 24 27
48 47 41 41 38 30 21 20 20 21 17 15 11 5 4 2 4 9 12 14 15 19 18 22 28 31 31 34 36 36 33 34 30 27 30 28 25 26
37 33 29 26 18 17 20 19 18 14 11 8 5 5 5 7 9 14 18 17 20 24 25 25 28 27 29 36 41 38 32 31 29 31 31 27 22 24
25 23 22 22 24 22 19 16 12 9 6 5 7 9 8 12 13 13 17 18 18 20 21 24 27 29 29 31 34 32 35 35 29 20 16 19 19 21
25 25 25 23 19 19 12 8 7 7 6 5 5 5 7 8 9 11 13 15 19 21 21 20 18 19 23 26 28 31 32 30 32 30 25 25 23 24
28 23 20 17 16 14 13 7 6 4 2 0 2 4 5 8 10 12 14 15 16 20 21 18 17 20 23 25 28 30 31 31 28 27 28 29 28 23
21 21 18 15 16 14 10 6 3 2 3 3 5 6 7 9 12 13 15 15 16 18 19 19 18 21 24 27 23 26 27 25 22 20 23 30 34 25
19 20 18 14 12 9 7 4 0 2 2 4 6 8 10 12 13 14 14 14 15 17 19 20 20 22 27 30 24 18 26 29 34 37 36 33 33 37
15 15 14 11 9 6 4 2 1 4 6 7 8 9 9 9 10 12 14 15 17 20 22 19 17 18 22 29 33 35 28 29 29 31 30 28 28 24
14 12 10 9 6 3 1 1 3 5 6 5 6 8 10 12 10 10 12 13 14 16 18 20 21 23 26 29 31 33 31 25 25 27 28 30 33 27
10 8 6 4 2 1 1 2 2 4 5 7 8 8 7 8 8 9 10 12 13 15 19 21 21 21 22 24 28 32 34 32 27 23 22 24 28 28
7 5 2 1 1 2 3 4 4 5 5 4 4 6 8 7 6 8 9 11 13 16 18 20 22 23 24 25 28 31 31 29 27 29 27 18 16 24

GFSNE_850_spd_081.txt.gz
Wind_Speed
42 39 36 34 32 34 35 34 33 32 37 38 36 33 34 34 31 31 34 33 30 37 38 37 35 34 35 35 34 33 33 32 32 33 34 35 33 32
43 43 40 39 36 36 38 38 38 37 38 40 40 39 39 40 37 33 32 32 29 30 32 32 34 35 35 34 33 32 31 32 33 33 34 32 31 32
50 49 48 47 46 43 42 40 41 41 44 47 46 44 42 46 45 42 38 38 33 30 33 34 34 36 35 34 31 31 32 33 32 32 31 31 32 32
55 54 55 54 53 50 47 48 48 49 50 50 51 49 47 46 47 44 40 40 38 37 38 36 38 38 34 32 31 32 32 31 30 30 30 32 32 31
56 58 59 59 57 55 54 54 55 53 50 51 50 49 47 47 45 44 47 43 45 47 41 40 38 36 32 28 29 30 31 30 29 30 30 29 28 30
65 61 60 60 60 58 56 53 51 49 49 50 50 47 45 44 40 45 49 44 48 46 40 38 36 30 25 24 24 25 26 27 27 27 26 26 29 33
60 62 61 61 61 59 56 54 52 53 47 44 47 45 47 46 50 51 50 47 43 46 42 36 31 27 24 25 27 24 26 24 23 24 26 30 33 35
54 56 57 56 54 53 53 52 52 53 53 51 49 48 53 52 50 49 43 40 38 41 39 34 32 28 26 20 22 24 24 25 24 26 30 35 37 37
52 54 55 55 54 52 49 50 54 54 53 51 52 52 54 53 51 48 44 41 38 38 35 32 29 26 16 20 24 24 27 26 27 31 32 35 38 34
50 52 52 50 48 48 49 51 53 55 54 50 50 51 49 50 44 37 33 31 29 26 23 21 18 14 18 24 27 27 26 26 29 32 34 36 31 33
53 53 51 50 49 52 51 50 49 49 49 49 44 33 30 27 25 23 27 25 19 13 12 13 13 16 23 23 23 25 28 30 31 33 30 29 35 38
57 59 58 57 53 53 54 51 48 45 38 28 21 23 21 20 20 18 17 12 10 5 9 13 18 18 19 19 23 23 25 25 24 27 34 39 36 32
50 51 53 55 55 52 50 48 42 34 24 22 22 21 18 16 11 7 4 5 7 11 13 17 21 21 22 27 31 30 28 32 37 36 33 31 30 30
52 52 45 45 44 31 21 22 28 30 28 23 22 16 13 9 7 5 6 10 14 17 18 21 24 24 25 29 32 31 32 31 29 29 28 26 26 25
41 36 31 20 18 22 27 28 25 21 19 17 13 11 6 3 2 6 8 11 13 15 16 18 19 20 22 24 27 28 29 30 25 21 24 25 27 28
29 26 26 29 30 28 23 19 17 15 12 13 10 7 5 4 5 6 8 10 12 13 15 15 15 16 18 19 22 25 27 27 30 27 27 26 24 24
31 29 25 23 25 24 19 17 14 12 12 10 8 4 3 4 4 6 8 9 10 12 13 14 14 16 18 20 23 25 27 28 28 27 25 27 26 25
27 26 23 23 22 20 18 16 13 8 7 5 3 2 2 3 4 6 7 8 9 10 11 14 18 22 24 24 21 20 21 23 26 29 31 34 40 38
24 25 23 20 19 16 12 9 8 7 4 4 1 1 3 5 5 7 8 9 11 12 14 16 17 15 17 19 21 20 29 32 35 36 31 28 31 33
22 21 17 15 14 12 10 7 5 4 3 2 2 3 5 7 8 9 9 10 12 13 13 13 13 15 20 26 31 32 25 22 24 28 30 30 31 30
18 16 14 12 11 8 7 4 3 2 2 3 5 6 8 9 7 7 7 8 8 10 12 14 16 16 18 21 25 30 31 27 24 26 29 30 31 32
14 12 10 7 5 4 2 1 1 2 4 5 7 7 5 5 6 5 6 7 8 10 12 14 14 16 20 20 24 28 31 28 22 20 19 22 28 34
9 6 5 3 2 1 0 1 2 4 4 3 4 4 5 5 4 5 5 7 8 10 12 16 17 16 18 20 23 26 28 28 29 31 29 25 21 25

GFSNE_850_spd_087.txt.gz
Wind_Speed
36 44 47 45 42 44 42 36 34 31 32 33 32 32 32 32 34 34 37 37 35 33 33 35 36 38 38 40 42 44 45 45 46 47 44 43 42 42
45 47 47 45 43 42 43 44 43 38 36 39 40 44 41 38 34 35 33 36 39 38 39 39 39 40 40 41 39 45 47 48 48 48 47 48 46 45
47 50 49 45 43 41 41 46 46 40 39 48 49 48 44 47 41 38 37 38 40 42 47 46 41 40 43 41 44 46 43 39 44 45 43 48 47 44
50 51 51 48 49 47 51 50 51 51 54 54 54 53 51 53 50 48 48 46 47 46 44 39 40 40 43 43 40 45 41 42 46 45 45 47 48 44
51 53 53 51 53 54 53 54 56 58 56 55 57 56 57 55 54 54 50 50 49 47 45 42 44 41 40 40 46 49 43 50 45 46 49 46 41 39
58 58 58 60 62 59 58 58 58 58 57 57 59 62 60 59 57 56 56 55 54 51 46 42 41 43 45 43 40 45 46 45 45 45 45 42 40 35
61 63 63 63 64 63 61 64 63 62 61 54 52 50 49 49 56 57 54 54 53 48 46 46 46 43 45 46 40 42 43 43 44 46 45 43 39 27
56 58 60 60 62 63 62 62 62 59 60 55 52 49 51 49 50 53 50 52 52 49 47 51 47 45 43 45 41 40 40 41 39 38 34 31 27 18
52 52 53 53 53 54 55 54 54 57 60 61 56 56 54 50 50 48 50 52 54 53 50 50 45 42 40 40 35 38 39 38 35 30 29 20 15 19
53 53 53 52 52 50 50 51 49 49 52 55 60 62 62 56 55 53 53 54 56 58 51 40 36 34 34 31 32 34 30 28 26 24 19 16 17 23
51 50 52 52 49 45 45 47 48 48 47 50 52 57 60 60 62 64 64 57 53 45 38 34 30 27 25 23 24 23 22 19 17 15 16 19 24 28
52 55 52 54 52 50 52 52 53 53 52 54 54 56 60 61 62 64 61 45 44 31 26 24 20 25 16 17 17 18 17 16 17 19 22 27 32 32
50 54 57 60 54 59 60 58 57 57 55 55 50 42 31 27 26 24 23 25 29 19 16 17 17 16 11 10 14 15 16 18 20 22 23 27 31 33
38 47 52 58 59 56 56 58 55 55 48 38 26 16 13 12 12 11 11 9 6 6 9 8 9 9 8 8 10 13 18 21 25 27 28 29 29 28
31 25 16 32 37 39 33 20 22 20 21 20 22 20 14 12 10 8 8 7 5 3 1 2 3 5 6 7 11 15 18 20 22 23 22 26 30 30
3 2 3 4 9 11 11 14 14 14 14 13 12 12 13 12 8 6 5 5 4 3 3 5 6 7 9 10 13 15 17 15 20 25 28 30 31 31
13 13 17 21 24 25 21 24 23 21 18 17 16 12 11 8 8 6 4 4 4 3 7 9 9 10 11 13 14 17 18 20 22 26 28 30 30 29
18 21 24 24 25 23 21 17 19 16 14 11 10 8 8 7 7 8 9 7 5 5 6 8 10 10 9 8 10 14 18 21 23 24 26 30 33 30
21 24 24 22 22 20 17 16 15 13 8 6 6 5 6 7 6 5 4 5 4 4 7 9 10 12 14 15 14 13 24 24 26 27 27 29 33 33
19 19 19 18 17 15 13 11 10 7 7 8 6 7 7 6 7 6 5 5 5 6 7 8 10 13 15 18 22 22 20 24 25 29 31 32 34 34
14 14 13 13 12 10 9 7 6 6 7 6 6 8 8 7 6 6 6 6 6 7 7 9 11 12 14 15 18 23 21 20 21 25 29 33 37 40
11 10 9 8 7 6 6 6 6 6 6 5 7 7 7 7 5 5 5 5 6 7 8 8 10 12 14 17 22 26 28 24 19 21 22 26 29 35
6 6 6 6 5 5 5 5 5 5 5 6 6 5 6 5 4 5 5 6 6 6 7 10 12 14 16 20 22 25 24 25 27 31 28 20 19 21

GFSNE_850_spd_093.txt.gz
Wind_Speed
39 38 35 34 36 34 36 36 32 28 25 24 29 26 26 31 29 34 30 33 32 34 34 32 36 35 35 39 38 38 38 38 40 41 41 42 42 44
39 41 45 42 44 40 36 36 36 37 36 32 32 36 34 37 37 36 36 40 41 39 40 41 37 37 40 40 41 41 41 42 43 45 46 47 46 46
42 39 41 43 45 42 39 39 43 38 41 47 43 41 40 44 44 43 41 42 41 43 45 45 43 44 43 44 43 46 47 48 49 49 48 49 49 49
40 44 44 44 48 45 46 48 46 49 48 53 47 45 48 48 48 48 48 50 51 54 45 48 47 51 49 49 48 48 48 51 53 52 53 50 50 51
39 40 43 43 44 44 47 46 48 50 49 53 55 47 45 47 54 57 56 56 57 55 56 55 53 53 54 55 54 53 53 55 56 54 53 52 53 52
39 40 42 45 47 46 47 48 48 50 47 45 51 54 46 48 45 47 47 50 55 58 60 59 57 55 52 51 49 50 51 51 51 54 52 50 51 53
36 38 40 42 45 47 49 51 45 43 44 44 45 47 46 45 45 49 50 56 56 53 56 57 57 53 53 52 50 47 44 44 45 46 47 51 51 53
36 37 39 40 42 45 47 48 48 46 48 50 51 51 53 56 53 49 49 46 47 49 50 52 50 50 48 48 46 45 44 43 42 42 46 49 50 49
38 40 42 43 42 43 43 44 45 46 49 54 58 59 57 57 58 54 52 53 55 51 46 48 45 46 51 53 52 53 52 49 46 47 48 45 42 43
34 33 36 36 39 42 43 45 47 45 46 50 56 61 56 52 49 49 53 56 55 54 54 53 48 46 46 46 48 50 50 49 47 41 37 41 42 39
37 40 45 48 46 45 45 46 47 48 49 48 51 55 55 57 58 60 61 50 49 44 44 43 35 33 29 27 23 16 20 22 24 23 21 18 16 15
26 30 36 40 44 45 46 48 45 41 42 45 45 49 47 47 50 48 47 44 45 39 25 20 19 18 10 7 7 11 11 11 9 9 9 12 15 17
18 21 26 32 36 37 40 42 42 38 33 31 29 30 31 29 26 26 23 22 21 20 18 17 17 18 13 11 11 8 9 11 12 12 10 12 13 13
9 8 11 17 19 19 20 20 19 16 15 15 15 6 3 6 7 6 5 2 3 4 4 6 9 10 10 12 8 5 5 6 6 8 11 15 15 16
8 9 11 12 11 9 11 7 3 3 7 8 10 12 10 12 11 12 13 13 12 13 11 10 9 7 6 6 6 3 4 7 9 9 14 17 18 18
13 11 12 13 14 16 15 15 16 14 13 14 15 14 13 10 9 11 9 8 10 11 8 7 6 4 3 2 2 4 6 6 9 11 14 15 15 17
14 14 16 18 19 20 21 21 20 18 18 17 15 13 12 10 9 9 7 8 10 11 9 7 6 5 4 3 3 3 5 9 12 13 15 17 16 17
12 17 20 20 20 19 18 17 16 15 14 12 10 8 7 7 8 9 9 9 11 11 11 10 9 7 6 7 5 6 9 11 13 15 17 19 20 18
13 16 17 17 16 15 14 13 12 11 9 8 9 9 9 9 9 10 10 9 10 10 11 11 11 10 9 8 3 12 13 14 16 17 18 19 23 22
12 13 13 12 11 10 10 10 9 8 8 9 9 10 10 10 10 11 11 10 10 10 11 11 12 13 12 10 10 10 13 16 18 20 21 24 25 26
8 8 8 8 9 9 9 9 9 9 9 9 10 10 10 10 10 10 10 10 10 10 11 12 13 13 12 12 13 15 15 16 17 20 22 24 24 25
8 7 7 7 8 8 8 8 9 8 9 9 9 9 10 9 9 9 9 10 10 10 11 11 12 12 12 13 15 17 18 18 18 20 13 16 18 17
7 7 7 6 6 7 7 7 7 7 8 8 8 8 8 8 8 8 8 9 9 10 10 11 11 12 12 14 16 16 19 20 22 16 8 11 14 16

GFSNE_850_spd_096.txt.gz
Wind_Speed
44 35 35 33 34 31 23 22 23 23 25 22 23 28 26 26 28 27 33 40 33 39 34 31 31 33 34 33 36 39 38 40 43 44 45 44 43 44
43 36 31 33 35 35 34 28 28 27 28 26 26 20 24 29 34 35 34 36 40 37 39 36 39 40 44 42 43 40 41 46 45 46 46 45 47 47
37 36 39 32 34 32 34 35 40 37 37 39 37 37 35 34 33 37 37 41 42 41 42 44 45 47 45 48 46 47 49 45 42 45 49 51 51 52
35 40 42 43 38 40 41 44 46 42 44 49 50 49 43 46 45 45 48 45 45 43 45 44 46 50 48 47 49 48 50 55 56 53 54 52 54 57
37 37 39 41 45 45 44 44 46 48 51 50 46 40 46 43 40 42 45 42 44 47 48 51 52 54 53 52 55 59 57 56 57 59 60 62 61 59
33 37 40 43 46 43 42 42 37 36 35 38 41 40 37 42 39 41 40 42 47 43 45 49 49 51 51 51 53 55 56 56 56 56 56 58 58 58
34 36 37 39 41 40 38 39 36 38 40 40 41 44 43 40 41 41 43 44 45 44 48 48 44 46 47 49 49 49 48 46 46 48 51 52 52 53
30 31 32 34 36 38 40 42 43 44 44 45 45 44 48 47 45 43 44 43 47 47 50 52 46 45 44 47 49 52 53 51 49 46 46 48 49 49
32 33 34 35 37 40 40 40 40 41 44 48 51 48 47 47 45 46 46 46 48 44 40 43 37 41 48 51 55 55 55 55 56 56 55 54 54 55
33 34 34 35 35 37 39 40 40 40 41 42 45 54 58 57 56 55 51 50 51 47 43 39 38 35 41 44 46 51 53 54 54 53 50 47 42 38
29 32 35 38 41 41 41 40 39 38 43 43 44 47 49 50 50 49 49 49 52 48 43 35 38 35 31 28 31 31 25 21 21 22 21 18 14 15
19 21 25 29 32 36 37 37 36 36 37 37 37 38 39 40 42 39 38 35 31 29 30 25 25 24 19 19 15 13 11 8 7 8 8 8 9 10
10 10 10 13 17 19 21 21 21 23 23 22 21 20 20 17 17 13 11 10 13 15 16 15 15 16 12 7 8 8 8 8 8 9 9 10 11 12
1 4 7 9 10 8 5 6 6 6 6 7 6 5 4 8 9 11 9 8 5 3 3 4 6 8 8 8 6 8 9 9 10 11 12 13 14 15
12 12 12 11 11 11 13 10 9 9 8 7 8 8 9 9 9 10 10 10 9 7 5 4 4 4 4 3 3 4 4 8 10 12 13 15 16 17
16 15 15 16 16 15 14 15 14 13 12 12 11 10 8 7 7 7 7 5 6 5 4 3 3 3 3 3 2 3 5 6 10 11 12 12 12 14
14 13 14 14 15 16 16 15 14 14 13 12 10 9 8 8 8 7 7 7 7 8 9 8 5 3 2 2 2 3 6 7 9 12 13 13 13 15
10 12 14 14 14 13 13 12 11 10 9 8 8 8 8 8 8 8 9 8 8 8 8 8 8 7 6 7 4 6 7 9 11 12 13 15 16 14
10 12 12 12 11 10 9 9 10 8 7 7 7 6 6 6 7 7 8 8 8 8 8 8 7 6 5 5 7 8 10 11 12 12 13 14 18 18
10 11 11 11 10 9 9 9 8 8 8 8 7 7 7 7 7 7 7 6 6 6 6 7 8 6 6 7 7 7 11 12 13 15 16 17 17 18
9 9 9 9 9 9 9 8 8 8 7 7 7 7 6 6 6 6 7 6 6 5 6 7 7 7 7 8 8 10 10 14 13 14 15 16 14 11
8 8 8 7 7 7 7 7 7 6 6 6 6 5 5 5 5 5 5 5 5 5 5 7 8 8 7 8 10 12 11 14 13 16 12 12 14 10
7 6 6 6 5 5 5 5 5 5 5 5 5 5 4 4 4 4 4 5 5 5 7 7 8 8 8 9 12 12 14 14 14 10 9 15 15 15

GFSNE_850_spd_102.txt.gz
Wind_Speed
32 30 30 30 28 25 21 16 17 18 21 19 22 19 20 20 22 24 29 29 29 31 31 31 30 32 33 35 36 37 39 38 36 36 37 38 40 40
33 31 31 33 35 38 31 28 27 20 18 20 13 21 20 21 22 23 23 26 29 31 31 32 34 34 37 41 42 38 41 41 41 44 42 43 44 49
33 36 36 35 33 33 31 32 32 27 24 27 25 19 20 20 24 26 26 27 29 29 34 40 45 47 40 40 41 40 39 42 47 50 52 49 51 49
33 32 33 31 30 29 29 36 35 35 35 37 39 36 37 36 37 38 41 45 44 46 49 54 53 46 42 41 42 42 43 45 46 49 51 54 54 54
33 33 29 32 36 35 34 30 30 32 29 29 33 35 37 38 41 41 41 42 42 46 43 41 42 46 44 41 43 47 47 45 42 43 46 49 51 54
31 28 30 33 28 25 29 35 36 26 27 30 33 34 38 38 36 34 37 39 39 36 37 37 38 40 41 43 45 44 45 45 45 44 46 46 45 45
28 24 22 21 20 28 26 25 29 31 33 37 42 42 41 41 39 32 34 33 33 32 30 29 28 34 32 37 37 37 37 42 45 48 50 49 53 50
20 21 21 23 30 30 31 30 29 31 33 34 34 34 26 27 28 27 27 26 31 35 31 32 32 34 40 41 41 42 49 45 48 50 52 48 50 50
26 22 23 26 27 28 29 32 31 35 37 40 43 44 45 47 48 43 43 42 42 41 38 35 33 33 37 42 46 44 43 43 43 45 48 46 44 42
24 23 26 27 28 28 28 31 31 32 32 33 34 32 32 33 33 34 34 34 31 31 31 29 31 29 28 30 32 33 34 33 34 35 32 31 29 25
30 31 29 27 28 31 29 25 24 25 28 29 29 29 29 30 29 27 24 22 21 21 21 22 19 19 20 22 22 22 21 20 20 19 17 16 15 15
14 12 16 20 22 20 20 20 18 14 16 16 14 14 13 13 14 13 10 11 10 13 11 10 11 11 7 10 10 14 18 18 16 13 13 14 15 16
5 2 4 1 5 7 7 7 8 6 4 4 3 4 5 6 7 6 5 5 5 5 6 5 6 6 6 9 11 12 13 14 15 14 13 13 14 15
8 7 9 10 10 9 7 10 10 7 6 4 3 3 3 4 5 6 6 7 7 8 7 6 4 2 2 5 6 14 15 14 14 13 14 13 14 15
13 12 13 13 13 13 14 10 8 8 7 7 8 9 9 9 8 8 7 7 8 7 6 6 6 3 2 2 5 10 12 9 12 18 16 15 15 16
17 15 15 16 15 15 14 13 13 12 12 13 13 11 10 10 9 8 9 7 7 10 10 7 7 7 7 6 5 5 8 8 14 15 15 14 14 14
12 11 12 14 15 14 13 12 11 10 10 10 9 8 8 9 9 8 7 6 7 7 8 7 6 6 9 9 7 9 9 11 14 16 15 15 15 13
11 13 15 14 14 12 10 10 8 8 7 6 6 7 8 7 6 6 7 7 8 9 11 10 6 4 5 7 9 12 10 13 15 16 17 18 18 14
10 12 13 11 10 8 7 6 7 7 5 4 5 6 6 6 6 6 5 5 7 7 9 12 11 8 4 5 7 12 15 17 16 18 17 17 17 10
10 11 11 10 8 8 6 6 6 5 4 4 4 5 5 5 4 7 8 7 5 5 6 9 11 10 9 11 13 13 17 17 20 20 19 15 13 6
8 8 7 7 7 5 6 7 6 6 7 6 5 5 5 6 6 6 3 4 4 3 5 8 11 11 10 11 11 15 11 14 21 17 20 19 18 10
5 4 4 5 5 5 3 4 2 2 3 3 3 5 4 4 4 4 6 6 8 4 4 3 9 8 8 10 13 15 14 16 18 13 8 9 13 14
4 2 3 3 4 4 1 2 0 1 1 1 2 5 6 6 4 7 3 2 6 10 8 2 4 6 5 9 11 13 15 18 21 20 6 4 4 9

GFSNE_850_spd_105.txt.gz
Wind_Speed
47 41 39 32 29 23 27 21 15 13 27 27 23 19 15 17 17 17 20 21 24 27 28 29 29 30 32 33 32 34 34 35 36 38 42 40 40 39
42 40 38 35 31 31 28 25 19 15 17 21 21 20 17 17 17 19 20 21 22 21 25 30 31 31 32 32 34 34 39 41 42 38 38 42 42 43
37 36 30 30 33 33 33 29 32 32 27 28 20 14 17 18 18 21 22 24 26 26 26 29 30 32 34 39 42 45 39 36 38 40 40 39 42 45
33 32 31 34 34 33 36 39 37 39 35 32 28 28 24 24 28 27 24 26 30 35 39 42 39 40 41 42 40 40 41 41 42 41 41 43 44 46
29 33 34 35 35 35 32 31 28 31 32 33 35 33 32 29 27 30 33 34 35 32 31 31 32 33 35 35 36 40 41 43 42 45 46 45 45 46
33 31 35 34 34 30 34 32 29 28 27 28 32 32 31 30 29 30 34 27 26 28 31 34 34 34 35 36 38 40 43 43 44 46 47 45 47 47
31 33 32 28 25 29 30 30 29 31 36 33 28 29 32 31 35 30 27 24 24 18 22 26 27 28 31 32 33 31 32 39 36 36 41 39 42 41
28 30 30 27 21 21 24 25 25 23 22 27 32 33 33 32 30 27 18 21 28 30 32 37 38 28 29 34 34 34 34 37 40 42 42 41 41 42
23 21 23 24 24 26 27 25 29 30 32 31 32 31 29 26 28 33 37 36 40 36 32 31 32 31 31 30 32 35 32 32 31 32 33 33 30 28
25 25 25 30 31 33 34 35 32 31 32 32 34 35 36 36 36 29 26 24 23 23 21 20 21 21 19 20 21 21 21 22 22 20 18 16 15 14
24 23 22 25 29 27 27 28 24 24 25 24 22 22 21 24 25 24 20 18 17 16 15 14 15 15 14 15 15 15 15 14 15 14 13 13 14 14
16 18 24 23 25 24 20 24 24 18 13 14 10 8 6 4 4 6 8 10 11 11 11 8 8 8 5 8 8 10 12 12 10 9 9 10 11 13
8 7 5 5 3 2 3 7 11 11 10 8 6 3 3 3 2 2 2 3 3 3 3 3 3 3 3 4 8 8 9 7 7 8 9 11 13 14
11 9 8 4 1 7 9 9 9 9 9 8 7 7 6 6 6 6 6 6 5 4 3 2 2 1 1 2 4 9 8 10 10 10 12 11 12 12
13 14 10 8 10 12 13 11 12 11 9 9 10 10 10 10 9 9 7 6 5 5 4 3 3 3 1 3 4 6 6 8 10 14 13 13 13 12
14 16 14 15 15 15 13 13 14 13 12 12 12 12 11 9 7 6 5 4 3 3 3 2 0 2 2 2 3 5 8 8 12 13 13 13 13 12
12 13 13 13 13 12 12 12 11 10 9 8 9 8 6 5 6 5 4 2 1 1 3 2 1 2 1 1 3 6 7 9 12 14 14 13 12 12
11 12 12 11 11 10 9 9 7 6 7 5 5 5 4 3 4 5 3 3 3 3 4 5 1 2 3 4 7 8 8 11 11 13 14 14 11 7
8 10 9 8 8 7 7 6 5 5 4 4 3 3 2 3 4 5 5 4 4 3 5 6 5 2 2 3 3 10 13 11 12 14 12 11 12 7
7 8 8 7 5 5 6 5 4 3 3 4 4 3 3 2 2 4 4 4 3 1 3 6 7 8 8 9 10 12 8 12 15 18 18 11 8 6
6 5 4 4 4 3 2 4 3 3 4 4 4 4 3 2 2 3 1 2 1 3 3 4 5 4 5 7 10 14 8 8 12 18 19 17 13 4
4 3 3 3 3 3 3 1 1 2 1 1 2 3 2 0 2 3 2 3 3 4 5 4 5 4 2 4 9 14 12 13 14 16 12 11 11 10
2 2 4 4 4 2 2 3 2 3 3 1 1 2 2 2 1 1 1 5 9 9 7 4 5 4 4 5 8 12 12 15 20 19 0 8 8 7

GFSNE_850_spd_108.txt.gz
Wind_Speed
34 39 50 42 38 35 30 27 29 27 33 33 37 35 30 26 24 25 23 20 20 21 21 22 23 25 27 28 28 29 33 34 34 34 34 38 39 39
35 41 37 42 41 34 28 28 28 28 23 24 25 25 21 22 20 21 21 20 20 20 20 21 20 25 27 30 31 34 31 33 35 36 38 37 39 41
37 41 42 47 40 33 28 30 26 24 20 15 21 20 22 20 21 21 20 24 22 21 20 22 25 25 27 31 33 35 36 39 40 41 42 42 42 41
34 38 42 45 40 36 33 31 32 27 25 24 24 24 26 23 21 19 20 20 24 26 27 27 30 30 36 34 33 35 39 41 43 43 44 44 44 44
33 33 31 35 34 35 32 33 36 35 32 31 33 34 30 29 26 27 29 29 25 26 28 32 36 33 33 34 33 34 36 37 37 39 40 43 43 46
25 27 29 30 29 32 33 34 34 35 34 30 29 30 30 31 27 27 27 28 27 29 30 30 30 31 33 35 33 32 30 27 31 30 32 34 38 38
27 28 29 28 31 33 35 35 35 32 28 27 29 26 25 26 29 27 27 26 29 26 27 22 20 18 20 27 28 33 31 32 33 31 33 35 37 40
30 31 29 31 32 35 31 27 28 27 32 33 29 32 32 29 30 30 29 28 27 24 18 20 28 28 28 23 22 26 29 33 34 36 35 35 34 30
30 32 33 33 33 33 30 28 27 27 25 26 25 24 27 30 32 31 31 29 28 24 29 28 28 26 24 27 26 25 26 27 29 30 28 24 21 21
27 27 27 24 26 28 28 27 28 27 29 29 30 31 32 32 30 27 27 34 40 38 31 22 23 19 18 17 17 17 20 21 19 17 18 18 18 17
23 24 24 24 25 26 27 29 31 30 32 34 34 32 31 33 33 28 25 25 24 22 22 19 18 17 15 14 13 13 12 14 15 15 13 12 12 12
20 20 24 24 23 21 20 22 23 22 20 18 18 18 19 17 20 19 18 16 16 17 15 15 14 13 9 10 8 7 8 7 7 7 8 9 9 11
12 12 13 12 11 10 8 11 11 12 9 9 8 8 8 7 7 9 10 13 14 15 10 11 12 12 10 7 6 5 4 6 7 8 9 10 12 13
15 13 10 6 7 5 6 5 5 6 9 9 8 8 6 6 5 5 4 3 4 4 6 6 5 6 7 7 5 4 7 8 9 8 11 12 12 13
11 11 10 8 9 9 9 12 8 7 7 8 6 7 7 7 6 5 5 4 3 3 2 2 4 4 6 7 6 6 7 9 10 10 12 12 12 13
13 14 13 9 9 10 8 7 9 8 8 10 10 9 7 7 5 4 3 2 1 2 2 3 3 3 3 4 4 5 7 7 11 11 11 12 12 13
11 13 14 13 13 12 11 11 12 8 7 9 9 7 5 4 5 4 3 1 1 1 1 2 3 4 3 3 4 5 6 9 10 11 11 9 10 11
7 10 12 12 12 10 10 10 8 7 6 6 4 5 7 7 6 4 3 2 1 1 1 1 2 4 5 5 6 6 7 8 8 10 11 12 8 8
6 10 10 9 9 8 7 6 7 6 4 4 4 4 4 4 5 4 3 3 2 2 2 2 1 1 2 3 5 7 9 8 10 11 11 10 11 9
6 6 7 6 5 5 4 4 4 4 4 4 4 3 3 3 3 4 4 4 4 4 5 4 3 2 2 4 5 6 6 12 13 15 17 14 9 9
3 3 3 2 3 3 3 3 2 2 2 3 3 3 2 1 1 2 4 4 4 4 5 5 4 3 6 7 7 10 9 10 14 18 20 19 13 6
2 1 2 2 1 0 0 0 1 2 2 2 3 3 2 2 2 3 3 4 4 4 6 7 7 7 8 10 10 13 15 15 14 14 13 12 12 9
1 1 2 2 2 1 1 2 4 4 4 3 3 3 3 4 4 5 6 7 8 8 7 6 7 8 8 9 11 13 15 16 18 16 4 8 11 11

GFSNE_850_spd_111.txt.gz
Wind_Speed
39 40 46 51 49 42 43 42 40 25 34 32 33 34 33 30 25 22 22 22 21 21 21 22 22 23 23 24 24 24 26 27 29 30 32 33 33 34
35 37 40 46 48 42 40 38 32 31 26 29 30 32 28 31 28 26 24 21 20 20 21 21 20 20 21 22 23 24 25 28 31 32 36 37 38 39
29 37 28 33 39 44 46 38 31 29 27 27 29 29 29 24 23 22 22 21 21 21 21 20 19 19 21 23 26 26 28 30 34 37 39 39 41 43
28 34 32 35 36 50 43 42 35 32 28 26 24 28 25 26 23 22 23 25 24 23 20 21 23 26 29 31 32 35 38 38 37 38 40 42 43 44
26 32 34 37 33 40 46 40 35 32 29 27 27 23 23 24 27 30 30 28 20 22 24 28 30 30 33 35 37 38 37 37 37 38 38 32 29 32
22 33 32 34 39 44 42 36 35 31 32 32 31 30 30 28 32 29 29 28 24 26 27 30 31 33 34 33 34 34 33 33 31 29 29 28 31 33
16 24 33 34 27 29 35 41 34 33 34 38 35 30 29 31 32 31 31 26 26 27 28 29 31 30 32 27 23 23 27 30 34 32 30 32 34 33
24 22 21 22 22 24 26 28 31 32 36 37 32 36 32 30 25 24 24 26 26 27 28 29 29 30 23 20 26 31 29 27 28 32 33 31 25 27
27 27 29 28 29 33 33 29 32 30 29 28 29 31 30 28 28 27 27 29 30 27 29 29 28 23 25 21 22 24 26 24 21 21 22 23 21 25
27 29 26 31 34 30 31 31 30 29 30 28 29 29 27 26 27 27 28 28 29 29 25 24 23 23 19 18 16 16 16 14 14 17 20 22 23 21
24 27 27 27 28 27 26 28 30 28 25 27 29 32 31 30 29 28 27 26 26 26 26 25 20 18 15 13 14 13 10 10 15 19 19 16 14 12
23 21 25 23 22 23 24 26 27 24 24 27 27 30 32 31 31 28 26 23 24 18 18 16 15 14 10 13 12 11 11 13 11 10 11 11 11 12
14 12 12 14 17 16 15 18 20 21 17 14 11 8 7 8 8 9 10 12 12 13 11 15 15 15 14 8 10 10 9 8 8 8 10 12 12 13
12 13 14 8 6 7 10 13 10 9 12 11 8 7 6 6 6 3 2 4 8 9 11 11 11 12 14 13 10 9 7 7 7 9 10 12 12 13
15 14 12 8 8 9 8 8 8 8 9 10 9 8 6 7 7 7 6 4 3 5 7 6 5 6 7 8 7 7 7 8 10 9 12 13 13 12
13 10 12 11 13 14 12 10 10 8 7 11 12 12 11 10 7 7 6 5 3 3 2 2 3 4 5 7 6 5 6 6 9 11 12 13 13 13
9 11 13 12 13 14 14 13 12 11 11 12 11 7 6 6 5 3 2 1 2 2 1 1 2 2 4 4 4 5 6 8 10 12 13 11 11 13
6 9 11 10 10 11 9 9 8 7 7 7 6 5 5 4 4 3 0 1 1 2 1 0 2 3 3 3 4 5 7 9 10 11 13 16 13 11
5 7 8 8 8 7 5 5 5 5 4 3 3 3 2 2 2 2 2 1 1 3 3 2 1 2 3 4 5 7 9 9 12 13 14 15 18 14
6 6 6 6 5 4 5 5 4 4 4 3 3 3 4 3 2 2 1 1 1 2 2 3 3 3 3 4 4 5 10 14 16 18 19 18 16 13
5 5 6 5 5 5 5 4 4 3 3 2 2 2 3 2 2 1 2 2 2 4 4 4 4 4 5 7 7 9 10 12 14 18 21 21 18 10
4 3 3 3 3 3 3 3 2 2 1 1 1 1 2 2 1 1 2 2 3 4 5 6 5 5 7 8 9 11 14 15 14 12 14 13 14 11
3 2 2 2 2 2 2 2 2 2 1 1 1 1 2 2 3 3 4 5 6 5 4 4 4 5 6 8 10 11 14 17 19 17 8 13 15 16

GFSNE_850_spd_114.txt.gz
Wind_Speed
32 34 36 38 46 45 44 41 39 28 36 44 38 38 32 31 29 26 26 24 21 21 22 21 20 20 22 23 23 22 22 23 23 24 26 27 28 30
33 33 33 36 34 36 52 44 47 39 29 43 40 28 28 33 32 28 25 23 22 22 23 22 21 22 22 22 23 23 25 26 28 27 28 30 32 34
33 34 35 30 31 32 43 46 45 38 34 34 32 37 31 28 26 29 30 25 22 22 21 21 23 24 23 24 24 25 25 26 27 28 29 32 35 38
30 27 27 27 26 32 41 42 40 40 37 33 30 33 38 36 25 22 24 25 24 25 25 25 26 25 24 22 24 25 28 29 31 34 36 37 36 38
26 27 25 25 29 32 37 39 41 44 39 33 29 27 27 34 30 25 21 23 32 27 25 22 23 22 24 27 29 30 33 33 36 38 36 34 32 26
23 23 25 24 23 33 35 38 43 41 34 30 29 31 29 27 29 30 28 29 29 34 37 28 28 27 29 32 33 34 34 33 32 33 28 26 27 29
21 19 21 20 25 26 35 32 41 43 40 34 32 33 34 34 35 33 32 34 37 34 33 29 26 28 32 34 34 32 30 30 22 25 25 27 27 27
20 20 16 16 25 32 35 34 43 39 39 40 34 38 38 40 41 36 34 39 29 30 29 30 30 32 31 32 29 29 29 25 27 28 28 28 26 22
20 19 21 21 18 24 30 34 32 37 37 35 39 40 41 43 40 33 31 37 38 36 31 29 29 30 28 24 26 27 26 24 23 24 18 15 15 17
23 25 26 23 24 24 24 26 27 31 37 43 43 42 41 38 33 34 33 32 33 32 30 28 28 26 25 22 23 22 21 20 19 14 13 14 17 17
23 23 25 27 30 29 29 32 32 32 34 34 36 35 32 32 33 33 32 33 32 28 29 31 31 27 23 20 16 16 16 15 13 12 16 12 11 11
15 18 21 23 25 30 29 29 27 24 25 27 29 31 32 31 30 29 30 31 34 29 28 27 24 25 17 17 13 12 10 9 8 9 8 8 8 10
3 3 4 9 13 22 22 22 21 20 18 15 15 15 16 19 23 24 24 24 24 21 17 19 18 21 13 13 15 10 8 8 8 7 7 9 9 9
12 13 13 8 4 4 7 11 12 13 11 12 12 13 13 13 11 11 11 11 11 9 13 14 14 18 18 15 12 11 9 8 7 7 7 7 8 10
15 16 13 8 9 13 14 14 13 11 11 11 12 12 10 11 10 10 9 9 10 11 8 7 7 11 12 11 10 10 9 8 7 6 6 6 7 7
12 11 10 9 11 10 11 12 12 11 12 12 13 13 11 12 11 11 8 8 6 8 6 6 7 6 7 7 7 7 6 4 4 5 7 7 8 8
10 9 9 11 12 12 13 14 13 12 13 13 13 12 12 11 11 10 7 5 5 6 7 7 6 5 6 6 5 5 3 3 6 7 7 6 8 10
6 7 9 10 11 11 11 12 11 11 12 10 9 8 7 6 5 5 6 5 6 7 7 7 6 6 5 5 2 0 2 4 5 8 10 11 8 8
5 7 9 9 10 9 9 9 8 8 7 6 5 5 5 5 5 6 6 6 7 8 8 7 5 2 2 4 3 2 3 6 9 11 12 13 14 12
6 7 7 8 7 8 8 7 7 8 6 7 6 6 7 6 5 5 5 4 4 4 4 3 2 2 1 2 2 3 7 10 12 14 15 14 13 11
6 5 6 6 6 6 6 6 6 5 6 6 6 6 6 5 4 4 3 3 3 2 2 2 2 1 1 2 2 4 7 10 13 16 17 17 14 9
4 4 4 4 4 4 4 5 4 4 5 5 5 6 6 5 5 4 4 3 3 3 2 1 1 2 3 3 5 7 9 9 9 10 13 14 14 10
3 2 2 2 2 3 3 3 2 2 3 3 4 4 4 4 4 3 3 4 4 4 4 3 2 1 2 4 5 7 9 12 13 11 7 11 13 16

GFSNE_850_spd_117.txt.gz
Wind_Speed
36 35 33 34 34 35 35 37 42 22 34 38 40 43 45 46 41 30 29 27 26 26 26 28 28 27 26 24 24 23 22 23 23 23 23 24 24 25
37 35 33 35 35 36 34 37 45 41 31 41 39 41 43 51 43 35 31 29 27 27 25 25 26 26 26 25 24 25 26 26 27 27 27 27 28 28
37 36 36 34 35 35 35 39 38 39 39 27 37 39 37 46 38 36 32 32 29 29 29 28 27 28 28 27 27 27 28 29 29 28 28 28 28 28
36 35 35 35 37 33 33 34 34 32 41 36 34 32 39 37 35 34 32 34 36 33 29 29 29 30 32 30 28 29 29 28 26 26 27 30 32 33
34 33 34 36 30 29 28 30 29 29 38 39 35 33 36 36 39 39 33 31 35 35 32 31 31 31 31 30 29 29 28 28 29 30 31 32 34 33
34 33 32 28 28 27 27 26 28 31 35 40 37 34 36 38 37 44 34 29 30 31 28 27 26 22 27 28 30 30 29 32 31 32 35 34 31 26
27 28 25 26 25 26 28 29 34 35 39 39 36 33 33 33 34 40 43 38 32 31 30 29 32 35 32 32 31 32 32 33 35 35 32 29 24 24
19 24 24 23 21 21 19 23 25 29 37 39 40 36 35 36 32 35 41 36 34 35 35 36 37 41 41 39 35 31 33 34 30 28 28 27 26 27
20 22 24 23 20 19 16 30 35 35 36 38 41 40 37 35 32 39 40 41 43 40 39 41 40 35 31 32 34 34 35 32 31 28 25 24 21 18
28 26 28 25 25 22 20 21 32 34 35 37 40 39 38 36 34 42 42 45 45 44 41 41 36 32 30 28 28 31 32 30 21 17 17 15 13 16
14 21 26 24 27 23 23 26 31 32 33 39 38 38 42 42 40 41 41 43 46 42 41 43 39 33 29 26 24 25 23 18 16 14 12 12 13 11
6 7 14 21 20 23 26 26 26 29 29 33 35 40 41 40 41 40 38 38 42 34 37 36 35 37 21 22 22 20 16 15 13 11 10 8 7 6
7 8 10 10 6 12 16 20 20 21 18 21 21 22 26 29 28 31 30 29 31 24 28 35 33 37 19 21 23 19 16 13 9 6 4 5 6 6
17 16 14 14 10 5 2 6 8 9 10 8 10 10 12 13 15 16 19 23 23 20 20 25 22 29 24 17 19 20 15 10 6 3 4 6 6 7
19 17 14 13 12 13 14 11 8 8 9 11 12 12 12 16 16 14 14 14 16 17 16 15 11 21 12 10 11 17 13 8 5 4 4 4 5 6
15 13 12 12 13 12 11 12 11 10 10 12 12 14 12 13 15 14 13 14 13 16 14 14 14 10 11 11 10 12 9 6 7 6 5 4 5 6
11 10 11 13 13 15 15 15 15 14 13 14 11 11 10 7 10 11 12 12 13 15 14 12 11 11 12 12 12 11 9 7 4 3 3 3 5 6
6 8 10 12 13 13 13 13 12 12 13 11 10 9 9 8 9 11 11 10 11 13 12 11 11 11 12 12 11 8 7 5 4 2 3 4 5 8
5 8 10 10 10 10 9 9 9 9 9 7 7 7 6 8 9 11 12 12 14 14 13 11 9 9 8 8 9 8 4 2 2 3 5 6 7 7
7 8 8 8 8 8 8 8 9 9 8 9 8 8 8 8 9 9 9 9 9 10 10 9 8 8 8 7 7 5 2 1 4 6 6 6 6 7
6 6 7 7 7 6 6 7 7 6 7 7 7 7 7 6 7 7 8 8 7 7 7 7 7 7 7 5 5 3 3 5 6 8 8 7 5 2
4 4 3 3 3 4 4 4 5 5 6 6 6 7 7 7 6 6 6 6 6 6 5 5 5 4 4 4 4 3 3 3 5 7 9 9 7 3
3 2 2 2 2 2 2 2 3 3 4 5 5 5 6 5 5 5 4 5 5 5 5 4 4 4 4 3 2 1 3 5 5 3 6 9 10 12

GFSNE_850_spd_123.txt.gz
Wind_Speed
26 28 29 30 31 32 32 28 29 25 26 22 27 27 29 26 30 27 33 39 43 41 39 41 39 38 38 36 36 35 32 31 29 28 27 27 27 26
29 29 29 29 29 32 33 34 33 34 32 26 24 21 30 29 28 28 30 34 44 45 41 39 40 38 39 37 34 35 35 34 33 32 31 31 31 31
28 30 37 39 36 36 35 36 36 37 34 39 28 33 34 36 30 31 33 35 38 48 47 42 42 41 39 39 38 37 36 35 35 35 34 33 32 33
33 38 43 46 39 41 40 38 36 37 31 34 41 39 38 35 35 33 34 35 37 46 48 38 39 41 39 38 38 38 38 38 37 35 35 35 34 34
33 40 43 41 41 43 42 41 40 40 39 35 42 33 34 35 32 31 32 32 36 44 43 34 38 37 38 37 37 38 39 39 38 37 36 36 36 34
29 33 37 39 42 42 42 41 41 39 37 31 36 34 34 31 30 30 34 36 39 44 48 40 36 38 39 40 39 38 38 39 38 38 37 38 37 35
29 32 34 35 36 36 41 40 38 37 37 31 32 33 32 33 32 30 32 36 38 44 47 49 40 37 39 41 42 43 41 41 41 40 41 41 39 35
29 29 29 31 34 33 35 32 32 35 32 32 34 36 36 35 32 32 32 36 39 41 45 46 44 43 38 38 41 41 44 41 39 41 42 42 41 43
18 22 25 29 30 31 33 33 33 34 35 34 35 34 36 29 32 33 36 39 42 40 41 39 37 36 41 40 41 41 41 42 42 41 40 42 42 41
11 13 15 20 24 30 31 34 35 36 37 36 38 40 38 37 35 33 31 38 42 39 36 35 38 41 41 37 37 39 38 37 36 38 38 40 39 36
14 14 13 13 17 20 23 24 28 29 35 36 35 38 41 41 40 36 37 37 42 42 38 39 40 39 36 31 33 35 35 36 41 41 40 38 35 33
15 14 14 14 13 12 12 14 18 20 19 24 23 26 34 37 36 38 40 42 44 39 42 43 42 42 29 31 33 32 34 34 33 33 33 31 29 27
19 18 19 19 17 15 11 8 7 9 13 14 13 15 16 22 26 32 35 37 40 44 38 45 46 46 32 32 34 32 31 29 27 25 25 24 24 22
19 19 18 18 16 13 12 11 8 6 3 4 5 7 8 8 10 13 16 22 27 30 31 36 42 47 46 30 30 32 27 24 21 20 21 23 23 21
16 15 13 13 13 13 13 10 8 8 8 8 9 9 9 7 5 4 2 3 9 12 15 25 31 31 35 32 29 30 25 19 17 16 16 17 20 20
14 14 13 12 12 12 10 11 12 11 11 12 11 10 9 9 9 9 8 7 3 7 5 7 11 10 20 16 17 26 22 16 19 16 16 14 11 9
15 14 13 12 12 12 12 11 10 9 10 10 9 8 8 7 8 9 11 12 14 14 14 13 12 15 18 18 22 23 22 16 20 17 14 9 8 10
13 13 14 15 15 15 14 13 10 9 9 9 9 8 8 8 8 8 10 13 16 17 18 18 18 18 20 22 21 18 17 16 14 12 11 9 8 10
12 13 14 14 13 12 12 12 12 11 10 9 8 8 8 7 6 7 9 10 12 12 12 13 12 12 18 17 18 16 13 12 11 9 9 10 10 7
12 12 11 11 11 11 10 10 9 8 9 9 9 9 7 6 7 8 7 6 5 5 6 8 10 7 6 13 15 14 12 12 12 10 9 10 10 12
10 10 10 10 9 9 10 8 10 10 10 8 8 8 8 7 8 7 5 8 7 5 5 4 9 9 7 5 11 15 12 9 9 11 10 8 5 4
9 9 9 8 8 8 9 7 6 6 6 7 7 6 7 6 6 6 6 5 5 4 5 5 6 6 6 5 10 6 6 6 5 5 6 7 8 9
10 8 9 9 8 8 6 7 5 5 4 5 4 7 5 6 5 5 6 5 4 4 4 4 5 5 6 7 7 6 3 3 1 1 3 4 6 11